GFSGBSN_925_thetae_045.txt.gz
Theta_e
306 307 308 309 308 307 307 307 308 307 308 308 308 308 306 305 312 316 317 318 317 317 318 319 315 312 312 318 317 319 315 313 312 316 316 319 319 320 319 318 320 320 321 322 323 323 327
306 305 305 307 309 308 307 307 307 307 307 307 308 308 308 305 306 313 316 317 317 318 318 319 317 313 316 318 314 319 320 316 316 316 317 318 320 320 321 319 320 321 321 325 324 326 327
306 306 305 304 305 306 309 307 307 306 307 307 307 308 308 307 305 309 314 316 318 318 318 319 318 312 315 317 314 318 317 316 316 316 318 318 319 320 321 320 320 320 321 325 323 325 326
305 304 305 305 305 304 303 305 308 306 306 306 306 307 307 308 306 306 312 316 318 317 318 318 314 314 317 315 312 316 317 316 315 316 316 318 318 320 321 321 320 320 321 324 323 326 328
306 306 305 304 303 303 304 303 304 307 306 306 306 306 307 307 307 305 312 315 316 317 317 314 315 316 317 313 312 313 319 317 316 316 317 316 318 320 321 320 320 320 322 324 323 324 328
304 304 305 306 304 303 302 302 303 304 307 306 306 306 306 306 307 305 312 313 316 317 315 315 315 318 317 315 312 312 318 318 319 319 319 320 321 321 321 319 320 320 320 321 325 327 325
303 304 304 303 305 306 305 304 303 302 304 307 306 306 306 306 307 306 313 315 319 321 317 315 319 316 313 314 317 316 316 318 319 320 321 322 323 323 321 319 319 320 321 322 323 322 321
302 302 302 302 301 301 305 305 304 302 302 304 306 306 305 305 306 306 313 315 317 318 319 316 317 317 317 315 318 317 318 319 321 322 321 323 324 322 321 320 319 320 320 320 321 321 321
303 303 303 303 303 303 303 303 304 304 302 301 305 306 305 305 306 308 314 315 317 318 318 314 316 317 317 316 317 317 319 319 321 322 322 323 323 322 320 319 321 321 322 323 321 323 322
302 303 303 303 303 303 303 303 303 303 303 300 302 306 305 305 305 309 313 314 316 317 318 314 319 318 317 317 318 316 318 319 320 321 321 322 322 321 321 321 321 322 321 321 322 322 323
303 303 303 303 303 303 303 303 303 303 303 302 301 302 305 304 308 315 317 316 318 319 313 316 318 317 318 318 317 317 317 318 320 320 321 322 322 322 322 321 321 322 322 322 323 324 324
303 303 303 304 304 304 303 303 303 303 303 301 301 301 304 305 306 310 316 318 320 321 315 315 319 319 320 318 317 318 317 318 319 320 320 321 321 321 321 321 321 322 323 323 324 324 327
303 303 303 304 304 304 304 303 303 303 303 302 301 301 303 305 308 308 313 319 318 314 313 314 318 320 321 320 318 319 318 319 319 320 322 320 322 321 321 322 322 322 324 326 326 327 327
303 303 304 304 304 304 304 304 303 304 303 303 301 301 301 306 306 308 312 320 313 309 311 317 317 321 321 320 320 319 320 319 318 320 322 322 322 322 321 321 323 323 324 327 333 327 325
303 303 304 304 304 304 304 304 304 303 303 303 301 302 303 304 306 307 311 318 314 310 311 313 316 321 322 319 319 319 319 319 318 319 321 322 322 321 321 321 322 323 324 324 327 325 325
303 304 304 304 305 305 305 304 304 304 303 303 303 303 304 303 306 308 311 316 311 310 310 313 314 319 322 320 318 320 320 318 318 319 320 320 322 320 321 322 322 323 324 325 325 327 329
304 303 305 305 305 305 305 305 305 304 303 303 303 305 304 304 305 308 310 313 314 310 311 312 316 315 320 322 318 319 319 318 318 319 319 320 321 322 323 323 323 323 325 324 324 325 328
303 304 304 305 305 305 305 305 305 304 303 303 303 306 304 303 307 309 309 311 311 311 312 312 316 317 317 322 319 317 318 318 318 319 320 320 322 325 324 323 322 322 323 324 326 325 325
302 304 305 304 302 301 305 305 305 305 304 303 304 305 304 305 307 311 308 310 311 312 312 312 317 319 320 320 322 319 318 319 320 319 320 320 320 325 323 323 322 322 323 323 324 324 325
304 303 303 303 301 300 302 305 305 305 304 303 304 306 306 307 307 308 308 309 309 311 312 311 315 317 319 322 321 321 319 318 320 319 320 321 320 322 325 324 322 322 321 321 322 327 325
299 300 300 301 301 301 301 302 305 305 304 303 304 307 307 307 309 310 308 307 308 310 312 313 313 316 315 320 320 321 320 321 319 318 319 321 321 321 320 321 321 321 321 321 321 321 324
301 300 300 300 300 301 301 300 302 305 305 303 302 307 308 309 308 309 309 308 308 309 310 312 314 316 317 318 318 320 320 320 319 319 320 321 322 321 320 321 320 319 318 318 319 320 320
299 299 300 300 300 300 301 301 302 302 304 303 301 304 308 307 309 310 311 308 307 308 310 311 312 313 317 317 321 320 319 320 320 322 322 320 324 322 324 321 321 324 319 318 319 319 320
300 300 300 300 300 300 301 301 301 302 304 300 301 306 309 310 310 310 308 308 307 308 311 311 312 314 315 317 317 318 317 317 319 320 320 323 323 323 326 324 328 320 319 319 319 319 319
300 301 301 301 300 300 301 301 302 302 305 301 303 307 309 312 309 309 308 308 308 308 311 311 312 313 314 316 316 316 316 315 315 318 319 319 326 326 330 327 321 319 319 320 320 320 319
302 302 302 302 302 301 300 301 302 302 299 301 304 304 310 311 310 308 309 308 308 310 311 311 312 313 316 316 316 315 310 311 315 320 320 321 323 329 326 326 328 321 320 320 319 324 319
302 303 302 301 302 302 301 301 302 301 300 301 304 304 307 309 308 308 309 309 308 309 312 311 313 317 316 320 321 319 312 310 313 323 323 323 324 330 329 327 323 320 319 320 324 323 321
301 301 300 301 301 302 301 301 302 301 301 301 302 304 307 308 308 307 309 310 309 311 313 311 315 316 319 320 320 316 319 316 315 312 320 324 325 329 328 330 331 321 320 322 323 324 323
301 302 303 304 303 301 302 301 302 301 301 301 303 303 305 308 306 307 309 309 309 308 311 312 314 316 315 317 318 315 323 328 316 322 314 323 323 327 324 325 324 321 323 321 322 322 324

GFSGBSN_925_thetae_048.txt.gz
Theta_e
307 307 305 306 308 309 309 308 307 308 308 307 307 308 308 308 306 304 308 315 316 317 317 318 318 319 313 318 319 320 316 316 313 314 317 317 318 318 320 320 319 319 319 320 323 323 322
306 306 307 305 305 305 307 309 308 307 307 307 307 306 307 308 308 306 305 311 314 316 317 318 318 318 317 318 317 318 322 317 315 315 317 318 319 320 320 321 319 319 321 320 324 323 325
306 306 305 305 304 305 305 305 305 308 307 306 306 307 306 307 307 307 305 306 313 316 317 317 317 316 317 317 316 315 319 318 315 316 318 318 318 320 320 322 320 320 319 320 324 325 325
305 307 307 306 304 303 303 304 304 303 305 307 306 306 306 306 307 307 307 305 312 315 317 317 317 314 318 316 316 317 318 318 316 316 318 318 319 319 320 321 321 320 319 320 323 326 327
305 305 305 305 306 305 303 302 303 304 304 305 307 306 306 306 306 306 307 305 310 312 315 317 315 318 318 315 316 314 317 318 316 316 317 318 318 319 320 321 320 320 320 322 323 324 326
304 304 304 304 303 304 306 304 303 302 303 303 304 307 306 306 306 306 306 306 306 314 317 316 316 316 317 317 316 314 315 319 317 317 318 318 318 319 320 319 321 320 321 321 325 325 323
304 304 304 304 303 304 304 306 306 304 303 302 304 305 306 306 306 306 307 312 316 323 320 319 316 315 314 317 316 313 313 319 318 318 319 319 320 321 321 322 320 318 319 323 324 324 326
302 302 303 304 303 303 304 304 303 305 305 303 301 303 306 306 305 305 307 315 313 318 317 314 315 318 316 318 318 317 314 319 319 320 320 321 323 322 322 322 320 319 319 321 321 324 321
302 303 303 304 305 304 305 305 304 303 303 304 303 301 305 306 305 305 307 313 314 316 318 312 312 313 315 315 318 318 317 318 318 320 321 322 323 323 322 321 320 319 320 322 324 323 323
303 303 303 303 303 303 303 303 304 304 303 302 301 302 303 305 305 309 309 313 313 317 318 309 312 315 313 315 315 317 317 318 318 319 320 321 322 322 323 320 319 320 320 321 322 322 321
303 303 303 303 303 304 303 303 303 304 304 303 302 302 303 304 307 312 315 316 316 320 310 313 315 318 318 317 317 317 316 319 319 319 321 322 322 321 323 321 320 321 323 323 322 322 323
302 302 303 303 303 304 304 304 303 303 304 303 303 302 301 303 306 308 311 314 319 320 313 313 320 319 319 318 317 318 317 318 319 319 320 320 321 321 323 321 321 321 322 323 323 324 327
302 302 303 303 304 304 304 304 304 304 303 303 303 302 302 303 307 307 308 313 319 315 310 310 318 320 319 321 318 319 319 319 320 320 322 320 320 321 321 321 321 321 323 327 328 329 330
301 302 302 303 304 304 304 304 304 304 304 303 303 303 303 303 306 307 310 318 314 309 311 317 316 319 321 321 321 320 320 319 320 319 320 321 323 320 322 321 323 322 323 330 335 335 333
301 301 302 303 303 304 304 305 305 304 304 303 303 304 303 304 306 307 311 316 312 310 311 311 315 318 321 321 321 320 320 320 320 319 321 321 322 321 321 321 321 323 324 324 331 328 333
301 301 302 302 303 304 304 305 305 305 304 303 304 304 304 304 304 307 310 311 310 309 311 311 311 314 319 322 321 321 322 321 321 320 319 321 325 322 321 321 321 322 323 326 326 331 332
301 301 302 302 303 303 304 305 305 305 304 304 304 305 304 304 306 309 310 311 309 310 311 311 311 312 314 317 322 320 321 321 321 321 319 320 322 323 322 321 321 322 324 326 327 326 332
300 301 301 302 303 303 304 305 305 305 304 304 304 306 304 305 307 308 309 311 310 308 309 312 312 312 314 317 319 324 320 321 320 320 320 320 324 325 322 321 322 323 324 326 329 328 331
300 301 301 302 302 303 303 305 305 305 305 305 305 305 304 306 306 308 309 307 308 309 309 311 313 313 314 317 321 322 323 320 320 320 321 320 321 324 324 325 323 323 323 323 325 326 329
300 300 302 302 303 303 304 305 306 305 305 304 304 305 307 307 307 308 309 310 308 308 309 309 312 312 314 318 322 321 323 320 321 319 318 322 322 322 327 327 324 324 323 325 326 330 328
300 303 302 302 303 304 305 304 304 305 305 304 304 306 306 308 307 308 308 308 308 308 308 309 311 313 313 320 320 322 323 322 319 320 320 322 325 322 321 321 323 323 323 322 322 323 326
302 300 300 299 304 303 302 302 303 303 306 305 301 306 308 307 307 308 309 310 308 308 307 309 312 313 314 317 318 319 322 322 321 320 321 320 323 323 323 321 321 323 324 321 321 321 321
299 299 300 299 301 300 300 302 302 302 305 305 301 304 307 307 308 309 310 310 309 309 309 308 311 313 315 315 317 320 320 322 322 322 322 322 326 323 324 322 321 322 324 322 321 320 320
298 299 299 299 299 300 300 300 301 301 302 302 299 305 308 309 310 310 308 308 309 309 310 308 310 311 314 315 317 320 321 321 321 321 321 323 324 325 325 324 326 321 321 321 320 320 319
299 300 300 300 300 299 300 300 300 301 301 300 300 305 307 311 309 309 309 309 309 310 310 310 310 311 313 317 318 318 320 322 319 320 320 320 324 330 327 324 323 320 321 320 321 320 320
300 301 302 301 301 301 300 300 300 301 301 301 298 303 306 309 310 308 309 309 310 311 311 310 310 312 313 316 318 320 322 321 320 319 319 320 322 326 331 326 326 324 321 320 320 322 320
301 301 301 302 302 301 301 300 301 301 302 301 298 300 306 309 308 309 310 311 309 310 311 310 311 313 315 319 320 319 320 314 316 320 323 323 323 327 327 329 328 320 320 320 323 323 323
301 301 301 301 302 302 301 301 301 301 301 301 300 302 305 308 309 309 308 310 310 311 312 311 313 315 314 319 321 318 320 317 313 314 323 324 325 327 327 329 329 321 320 321 323 325 325
301 301 300 300 303 303 302 301 301 301 302 300 300 302 305 308 308 308 308 309 309 310 311 311 313 312 315 318 318 319 325 323 317 317 316 323 320 325 324 325 325 322 321 322 324 326 326

GFSGBSN_925_thetae_051.txt.gz
Theta_e
306 307 307 307 306 307 307 307 308 308 308 307 307 307 307 307 307 308 307 305 304 309 313 316 317 317 317 317 319 318 318 317 314 312 315 314 315 314 314 315 317 317 317 319 317 322 321
307 307 306 306 304 305 306 306 305 306 307 307 307 306 306 307 306 307 307 307 304 305 312 315 317 316 317 320 315 319 318 317 314 313 314 315 316 316 317 318 317 317 317 316 317 321 324
305 306 307 306 305 304 304 304 304 304 304 304 307 307 306 306 306 306 306 306 306 303 310 315 316 316 316 317 311 315 318 321 317 315 314 316 317 316 317 318 319 319 318 316 315 321 323
306 306 306 304 305 306 306 304 303 303 303 304 304 306 307 306 306 306 306 306 306 302 307 313 315 315 316 310 312 316 316 316 319 315 315 316 318 317 318 317 318 317 317 316 316 322 325
305 305 305 304 304 304 303 305 306 304 302 303 303 304 306 307 306 306 306 305 303 301 307 313 315 314 320 315 316 314 315 316 318 317 316 316 317 316 316 317 317 317 317 317 317 325 326
304 304 304 304 304 304 303 304 303 306 305 303 302 302 304 306 306 306 305 304 300 306 312 317 316 316 318 314 316 316 316 315 318 315 316 317 315 315 314 315 318 318 319 316 323 322 326
303 303 304 304 304 304 305 305 304 304 305 305 304 303 301 305 306 305 305 305 314 316 317 320 317 314 312 317 317 315 316 314 318 316 316 316 315 316 315 316 318 318 318 316 318 322 322
302 303 303 303 304 305 305 305 305 304 304 302 304 304 302 302 306 305 305 307 313 313 317 318 320 318 314 318 318 316 313 316 319 319 316 317 317 317 319 320 321 321 318 316 323 324 323
301 302 303 304 304 305 305 305 305 304 304 304 302 302 303 301 306 305 305 306 304 308 316 315 314 313 312 313 316 316 311 315 318 319 319 318 319 319 320 321 321 319 318 317 323 322 320
301 301 302 303 304 304 303 303 303 303 303 304 303 302 302 302 305 306 307 312 314 314 319 312 310 311 311 311 315 315 317 315 317 319 319 319 319 320 321 322 320 317 317 321 323 321 319
301 301 302 302 303 303 302 303 304 303 303 303 303 303 303 301 305 306 310 310 313 319 310 308 312 312 312 311 314 313 315 316 316 317 317 320 320 321 321 322 320 318 321 323 323 321 320
300 301 301 302 302 302 303 303 303 304 304 303 303 303 303 302 302 305 305 308 315 320 320 311 318 318 315 311 314 315 313 315 317 317 317 318 318 319 319 321 321 320 322 322 322 321 323
300 301 301 302 302 302 303 303 304 304 304 304 303 303 304 301 303 305 308 312 318 318 309 307 320 319 318 317 314 315 315 315 316 319 319 319 319 319 319 320 321 319 320 323 328 324 324
300 300 300 301 301 302 303 303 304 304 304 304 303 303 303 303 302 303 307 315 318 308 308 312 313 320 320 319 319 318 317 317 315 317 318 319 320 319 319 320 320 320 319 325 331 329 331
299 299 300 301 301 302 303 303 304 304 304 304 304 303 304 303 302 303 309 314 309 308 309 307 309 312 320 320 320 319 318 318 318 316 318 319 319 319 318 320 319 320 321 321 330 329 330
299 299 299 300 301 302 302 303 303 304 304 304 305 304 304 303 303 305 309 312 311 308 307 308 310 312 314 318 321 320 320 319 319 317 317 319 321 319 319 319 319 319 320 322 327 332 336
298 299 299 300 301 301 302 303 303 304 304 305 305 305 303 303 304 306 308 309 308 309 310 308 309 310 312 312 314 316 320 320 318 317 317 317 319 320 320 321 321 320 320 322 324 326 325
298 299 299 299 300 301 301 302 303 304 304 305 305 305 303 303 306 306 306 307 308 307 308 309 310 310 312 313 313 314 318 322 318 318 319 318 321 319 319 320 320 320 320 322 326 328 327
299 298 299 299 300 301 301 302 303 304 304 306 305 304 304 304 306 307 306 306 308 308 308 309 308 310 311 312 313 314 321 321 322 319 320 318 318 320 320 320 320 320 320 322 324 326 327
299 299 299 300 300 300 301 301 302 304 304 306 303 305 306 306 304 305 306 306 307 307 308 308 309 308 308 312 312 314 320 323 322 318 320 318 319 319 319 321 324 324 323 321 323 323 325
299 299 299 299 300 300 301 302 303 303 304 306 302 304 305 308 306 306 305 306 307 308 307 306 307 308 309 310 313 313 319 321 321 321 318 319 319 319 319 319 322 324 324 322 323 324 325
299 299 300 300 301 301 302 302 302 303 303 306 299 305 305 304 306 306 306 306 306 307 307 308 307 308 308 308 311 314 319 320 322 322 320 319 321 319 321 320 321 320 320 321 321 322 324
300 300 299 299 301 300 300 301 303 304 304 306 303 302 305 305 307 307 307 306 307 307 307 307 307 307 308 309 309 317 320 322 321 322 323 322 320 321 320 320 320 320 320 321 322 322 320
298 298 299 299 299 299 300 300 304 303 304 306 303 303 304 308 305 306 306 306 306 308 308 308 308 307 307 311 317 317 318 318 319 321 323 324 321 319 319 320 322 319 318 321 322 321 318
298 298 298 299 299 299 299 300 299 301 303 302 301 303 305 307 306 306 306 306 306 307 308 308 309 307 306 306 314 316 314 317 317 320 322 321 320 320 321 321 320 320 320 320 320 319 318
299 299 300 300 300 300 299 300 300 299 300 303 299 301 304 306 307 306 307 307 307 307 307 307 308 307 308 308 313 315 314 319 321 321 321 321 321 320 318 321 322 319 319 320 319 320 317
300 300 301 301 301 301 301 300 300 300 301 303 301 299 299 303 306 306 307 307 307 307 307 307 308 308 308 309 309 311 314 316 318 319 321 322 318 320 316 319 321 320 319 319 321 319 318
301 301 301 300 301 302 302 301 300 300 300 300 300 298 299 299 306 306 309 309 308 308 308 307 309 309 311 310 311 310 310 314 316 314 314 320 320 317 321 323 324 319 320 319 318 317 318
300 300 300 301 301 301 301 302 301 300 300 301 301 298 299 299 306 307 308 308 309 310 310 309 309 308 310 310 312 312 310 312 313 313 314 320 319 319 319 318 319 318 320 321 319 321 321

GFSGBSN_925_thetae_054.txt.gz
Theta_e
307 306 306 307 307 305 307 308 306 305 306 307 307 307 307 306 307 307 306 306 306 306 305 306 313 316 315 317 317 314 315 317 316 312 312 312 314 313 313 313 314 315 315 316 316 322 322
306 306 307 307 306 306 306 305 304 304 304 304 305 305 307 307 306 306 306 305 305 305 305 304 311 315 315 318 309 314 317 317 315 311 313 313 314 313 314 316 317 316 317 316 315 322 323
305 306 306 304 304 304 305 306 305 303 303 303 303 304 304 306 307 306 306 305 305 305 305 304 308 314 314 315 306 318 318 319 318 314 312 313 314 315 315 317 317 317 316 315 315 320 323
305 305 305 304 304 304 304 303 303 305 305 303 302 303 303 304 306 306 306 305 305 305 303 303 308 313 314 307 306 309 309 314 313 317 314 314 314 315 317 316 315 317 315 316 315 323 323
304 304 305 304 304 304 304 304 303 304 303 305 305 303 302 302 304 306 306 306 305 303 304 310 313 313 315 312 316 314 311 314 316 316 317 315 314 314 315 314 314 315 316 317 317 318 325
303 303 303 304 304 304 304 304 304 303 303 302 305 305 304 303 302 306 306 305 302 307 308 315 316 313 313 311 314 316 316 313 314 316 315 314 313 314 312 312 316 316 316 315 314 323 325
302 303 303 303 303 303 304 305 304 304 304 303 300 301 304 304 301 304 306 305 308 313 314 318 318 314 311 312 316 315 315 314 314 314 313 315 316 315 313 313 315 316 317 317 316 318 326
301 301 302 303 304 304 305 305 305 305 305 304 303 303 302 303 302 302 306 305 307 305 309 311 316 317 316 316 317 315 315 313 315 317 314 315 317 315 315 316 317 318 318 319 316 321 320
300 300 302 302 303 304 304 305 304 304 304 304 304 304 302 302 301 302 305 305 307 308 311 313 313 316 317 317 317 313 312 312 317 318 316 315 317 316 316 317 318 319 320 317 317 321 320
299 299 300 302 303 303 303 303 303 302 303 303 303 304 303 302 301 304 306 307 307 308 315 314 312 311 312 312 314 313 314 311 316 319 318 316 316 317 318 319 318 320 319 316 320 319 318
298 299 299 301 301 301 302 302 302 303 303 304 303 303 303 303 301 304 306 304 308 312 298 304 311 311 311 310 312 312 311 313 315 317 316 318 319 318 319 319 319 320 319 318 321 320 319
299 300 300 300 299 300 301 302 302 303 303 304 304 303 303 304 303 302 302 305 311 319 316 312 314 311 311 310 312 313 313 314 314 314 315 316 316 316 318 318 319 319 321 320 319 319 322
299 299 300 299 299 299 299 300 302 303 303 304 304 304 303 304 301 303 302 308 317 313 307 307 318 317 311 311 310 313 313 315 315 317 316 316 316 316 317 318 318 319 317 321 323 323 323
298 299 298 299 299 300 301 302 302 302 303 304 304 304 303 303 303 302 303 313 315 310 306 308 310 317 318 313 311 313 314 313 313 315 316 319 320 317 317 318 318 318 318 321 326 327 327
298 298 298 299 299 300 300 301 302 302 304 304 304 304 304 303 303 303 305 313 312 309 307 307 307 308 319 319 319 314 315 315 314 314 316 318 319 317 317 317 317 320 320 319 326 327 326
298 298 298 299 299 299 299 300 301 302 303 304 305 305 304 303 303 303 305 310 312 310 309 309 308 310 311 312 316 318 318 317 316 316 314 316 320 318 317 317 316 318 319 322 325 329 329
297 297 297 298 298 299 299 300 301 302 303 304 305 306 304 303 303 304 306 308 308 308 308 310 310 310 310 312 312 312 318 319 317 317 316 315 317 318 318 319 318 319 319 321 323 324 325
296 297 298 298 298 299 299 300 301 302 303 304 306 306 303 303 305 303 304 305 306 307 307 308 309 308 310 310 312 313 315 316 318 317 317 315 316 318 318 317 317 317 319 320 324 326 323
296 297 297 298 298 299 299 299 300 301 302 305 306 304 303 303 305 304 303 304 306 307 307 306 308 308 307 309 310 313 314 315 319 321 319 316 317 318 319 317 318 318 318 320 322 322 325
297 297 298 298 299 299 299 299 300 301 302 304 301 305 305 304 303 304 304 304 305 306 306 306 308 308 308 308 308 310 311 313 319 320 320 319 318 318 320 319 319 322 319 320 321 322 324
297 298 297 299 298 299 299 300 300 301 301 304 300 303 305 307 305 304 303 305 305 305 306 307 307 307 308 309 307 308 311 318 318 320 321 321 319 319 318 318 319 318 320 321 320 320 323
297 298 298 298 298 299 299 299 300 301 302 304 299 304 304 303 305 305 304 305 305 306 306 307 307 306 307 308 307 308 309 315 319 321 321 320 323 317 319 318 319 319 318 321 321 321 322
298 298 298 298 299 299 300 300 300 300 301 303 303 300 304 305 305 307 306 304 305 305 305 305 306 306 306 306 306 308 310 314 318 320 320 321 322 321 320 318 319 319 319 319 318 320 321
298 299 299 299 300 300 300 301 302 301 301 303 303 303 305 307 304 306 306 305 305 306 305 306 305 305 306 306 310 314 314 315 318 320 319 319 320 321 318 317 323 319 317 317 318 319 319
299 299 298 298 298 298 298 299 299 301 303 303 303 304 305 306 304 304 305 305 306 304 305 306 306 306 305 304 306 307 308 311 313 317 321 318 320 319 317 319 318 318 318 318 319 318 317
297 297 297 297 298 298 298 298 299 299 299 301 304 303 304 306 306 305 304 305 305 305 305 305 305 305 306 305 306 307 308 313 317 319 318 321 319 318 319 321 320 317 317 318 318 318 316
299 299 299 299 299 299 299 299 299 299 300 298 303 301 298 302 303 304 305 305 304 305 305 305 305 305 305 304 304 307 308 312 313 314 319 319 319 320 319 319 317 317 317 317 320 318 317
300 301 300 300 300 301 301 300 299 300 300 298 301 300 299 298 300 303 306 305 305 305 305 304 306 306 305 306 306 306 304 312 312 314 313 315 319 319 318 321 320 318 320 319 318 316 316
301 301 301 300 300 301 301 301 300 300 300 300 299 299 300 301 301 300 303 306 305 305 306 304 306 306 307 306 306 306 306 302 309 312 312 314 314 317 318 318 316 317 318 320 318 318 317

GFSGBSN_925_thetae_057.txt.gz
Theta_e
306 306 306 306 307 306 306 307 305 304 304 304 304 305 305 305 306 307 307 306 305 305 305 304 304 308 313 315 316 310 311 313 315 313 311 311 312 312 312 312 313 312 315 315 314 318 321
305 306 306 306 305 305 305 305 305 305 305 303 303 303 303 303 304 305 306 307 306 305 305 305 304 307 313 314 307 309 314 316 315 312 312 311 311 312 314 314 316 315 316 314 314 321 322
304 304 304 303 303 303 304 304 303 303 303 305 305 303 303 303 302 302 304 305 306 306 305 305 305 309 312 311 305 315 314 317 315 313 311 312 312 314 314 315 315 316 316 314 315 320 321
303 304 304 304 304 304 304 303 303 303 303 303 304 305 305 304 303 303 302 304 306 306 305 304 306 310 312 306 307 308 307 307 314 314 311 313 312 313 314 314 314 315 315 315 315 321 322
303 303 303 303 303 303 304 304 304 304 304 303 303 302 305 304 304 303 302 304 305 305 305 305 310 312 314 310 314 314 314 311 309 311 314 315 313 312 314 313 313 313 313 315 315 317 321
303 302 302 302 302 302 302 303 303 303 303 303 303 303 301 300 301 303 302 303 305 308 307 312 314 312 311 313 311 315 315 313 312 314 315 313 312 312 310 311 314 312 315 315 314 316 324
302 301 301 302 302 303 304 305 304 304 305 305 304 304 303 303 300 301 301 304 303 310 309 314 315 315 313 313 316 316 315 312 313 314 314 312 313 314 315 312 313 315 316 315 314 315 322
300 299 300 301 301 303 304 305 304 304 304 304 304 305 304 303 302 302 301 305 305 306 310 309 308 313 315 315 316 313 314 313 313 314 312 314 315 314 314 314 314 315 316 316 316 316 321
299 299 299 300 301 302 302 304 303 303 303 303 303 303 304 304 303 301 302 305 306 307 310 312 311 310 310 314 316 314 312 311 313 314 314 315 315 315 315 315 316 316 317 317 318 317 319
299 299 299 299 300 302 302 302 302 302 302 303 303 304 303 304 303 303 304 305 303 306 311 309 313 310 312 314 315 312 311 311 315 314 316 315 315 315 315 315 315 317 316 318 316 316 319
298 298 297 299 300 299 299 299 300 300 301 302 303 304 303 303 303 303 303 301 303 308 301 303 310 310 311 310 309 313 311 310 312 316 316 318 316 316 316 316 316 318 318 318 317 318 318
298 298 299 300 300 299 299 299 300 300 301 301 303 304 304 304 305 303 301 301 307 317 311 308 311 311 312 310 309 311 310 313 312 314 315 316 314 316 316 317 316 317 319 318 318 317 321
299 298 299 299 300 298 298 298 298 299 299 301 303 304 304 304 302 302 302 305 318 315 307 307 313 310 311 310 309 312 312 313 315 314 314 314 313 314 315 316 316 317 317 319 320 321 322
298 297 297 299 299 299 298 297 298 300 300 301 303 304 304 304 303 303 303 310 315 309 307 307 307 312 312 310 310 310 312 310 313 314 313 314 316 314 315 316 317 317 317 319 323 324 322
297 297 297 297 298 299 298 298 300 300 301 301 303 304 304 304 304 303 302 310 313 310 307 309 307 310 315 316 313 312 312 312 311 312 316 316 317 316 315 316 316 317 318 317 322 324 326
297 297 297 297 297 297 297 298 299 299 301 301 303 305 304 304 303 303 303 307 312 310 309 310 307 308 311 311 314 314 314 314 315 313 313 315 318 317 316 315 315 317 317 321 322 328 329
296 296 296 296 296 296 297 299 298 299 300 301 304 306 304 304 303 304 303 304 307 306 307 309 310 310 310 311 312 311 314 316 316 315 313 313 315 316 317 317 316 317 318 320 322 321 322
295 296 296 295 296 297 298 299 298 299 300 302 304 306 303 303 304 305 303 303 305 305 307 308 309 308 308 309 311 312 313 312 317 318 316 315 316 318 316 315 316 316 318 319 321 323 320
295 295 295 295 296 297 297 298 298 299 299 303 304 303 303 303 305 303 303 303 303 306 306 307 307 308 308 308 307 308 312 312 316 317 321 320 317 318 318 316 315 316 316 317 320 319 322
295 295 296 296 296 297 298 298 298 299 299 301 299 304 303 303 302 304 304 304 304 304 305 306 307 307 307 307 307 308 309 310 310 319 320 319 318 317 320 318 317 319 318 317 319 320 319
294 295 296 296 297 297 298 298 299 299 299 301 299 302 304 306 304 304 304 304 303 305 304 306 306 306 307 308 307 307 307 309 311 318 320 320 322 321 317 316 317 319 318 317 318 319 320
295 296 297 297 298 298 298 299 299 299 299 302 298 303 304 302 305 305 305 305 304 303 304 305 305 306 305 306 306 306 306 307 310 316 319 319 321 319 318 318 317 318 318 318 317 318 319
296 297 297 297 297 298 298 298 298 299 300 302 302 300 305 306 305 306 304 304 305 304 304 303 305 305 305 305 305 305 305 307 311 314 317 318 319 320 321 320 317 319 318 318 318 319 320
297 297 297 298 298 298 299 299 299 299 300 302 301 302 304 307 304 305 305 304 304 305 304 304 304 305 304 304 303 305 309 310 314 318 317 318 318 319 321 317 324 320 316 317 317 317 316
297 298 299 299 299 299 299 299 299 299 299 301 301 303 304 305 305 304 305 306 305 304 305 304 304 304 303 304 304 306 304 307 309 314 319 315 318 318 322 322 319 320 316 317 317 318 316
298 297 297 297 298 299 299 299 300 300 300 300 300 302 303 305 305 305 304 305 305 304 304 303 304 304 304 303 305 307 306 308 314 317 317 316 314 315 317 320 322 317 315 315 316 319 315
297 297 297 297 297 297 297 297 298 299 300 301 302 301 302 303 304 305 304 304 303 303 304 304 304 304 303 302 303 306 307 309 309 312 314 318 317 319 319 320 316 316 316 318 322 319 316
299 299 299 299 299 298 298 298 298 298 299 299 299 302 302 301 302 303 304 304 303 304 303 303 305 303 302 303 304 305 301 307 309 311 311 313 316 317 317 319 318 315 316 322 317 315 317
299 300 300 300 300 300 300 299 299 299 298 299 299 298 302 301 303 301 303 304 303 303 303 302 304 305 304 304 302 303 302 298 307 308 311 312 310 312 313 315 316 313 315 315 316 317 317

GFSGBSN_925_thetae_060.txt.gz
Theta_e
305 305 305 304 304 303 304 305 305 305 305 305 304 303 303 303 306 304 302 303 304 305 306 306 305 307 310 312 313 307 311 310 317 314 311 310 311 311 310 309 311 310 312 313 313 312 318
303 303 304 304 303 303 304 303 303 303 303 303 304 305 305 304 303 303 303 302 302 304 305 306 306 306 311 310 306 308 312 315 313 312 311 309 309 310 311 312 312 314 314 313 312 317 320
303 303 303 304 304 303 303 303 303 303 303 303 303 303 303 305 305 303 303 302 302 303 304 305 306 307 308 308 303 313 312 316 313 311 310 311 311 313 313 314 313 315 315 312 313 317 321
302 303 303 303 302 303 303 303 303 304 304 304 303 302 302 301 302 302 301 302 301 301 303 304 307 307 309 303 305 307 305 305 309 312 312 313 312 310 313 313 313 314 313 314 313 318 319
302 303 302 302 302 302 302 302 302 302 302 302 303 303 303 303 302 300 299 299 300 305 307 306 307 308 310 307 312 310 312 310 306 310 312 313 311 311 312 313 313 311 312 313 314 315 320
303 301 302 302 302 302 301 302 303 303 303 303 304 304 304 304 303 302 302 299 303 308 309 307 311 308 306 306 310 314 314 313 311 312 313 313 311 311 309 311 316 314 314 313 313 315 318
302 301 301 301 302 301 302 303 303 304 304 304 304 304 303 304 304 303 302 301 305 308 306 311 312 310 311 313 315 314 313 311 310 313 314 312 313 314 313 312 311 312 314 314 312 312 317
301 300 300 299 300 300 301 302 302 302 303 303 303 303 302 303 304 304 302 303 305 305 308 307 307 308 310 313 315 312 312 312 311 313 312 312 315 313 313 312 313 314 314 314 313 315 315
300 299 299 299 300 299 299 301 302 302 301 302 302 302 303 304 304 303 302 304 305 303 310 309 308 308 307 309 312 311 311 310 312 313 314 315 314 313 313 313 314 314 314 314 316 314 314
299 298 297 298 300 299 299 301 299 299 300 300 301 301 303 304 303 302 302 303 301 304 310 308 312 310 309 312 313 310 310 311 312 313 313 314 314 314 314 314 314 315 314 315 315 315 317
299 298 298 298 298 298 299 298 298 299 299 300 300 301 303 304 303 303 302 302 301 307 303 302 311 308 312 309 307 312 309 310 313 313 315 316 315 315 315 315 313 314 315 315 316 315 316
299 298 299 299 298 299 300 298 298 299 298 299 299 300 303 304 304 303 303 302 305 315 313 306 310 311 314 312 309 311 310 310 310 315 314 314 314 314 315 314 314 316 317 317 317 316 319
298 299 297 298 298 299 299 300 298 297 297 298 298 300 302 304 303 302 302 303 311 315 308 306 307 311 312 311 311 311 311 312 312 313 314 313 314 313 314 315 315 316 316 319 320 322 322
298 299 298 298 298 298 299 299 298 297 297 298 300 300 302 304 304 304 303 306 311 312 311 308 308 307 310 310 309 311 310 311 311 312 312 314 313 313 312 314 315 316 317 319 324 322 320
298 297 297 298 297 298 298 298 297 297 298 298 300 301 302 304 304 303 303 305 310 311 309 310 309 309 312 312 311 311 310 308 310 313 314 313 313 313 313 314 315 315 317 316 319 322 324
297 297 298 297 296 298 298 298 297 297 297 298 300 301 303 304 304 303 304 303 308 310 308 308 310 310 311 311 312 312 312 313 311 313 313 315 317 316 315 314 314 316 316 321 319 326 328
296 297 297 296 296 296 297 297 297 296 297 298 300 303 303 304 304 304 305 303 303 303 306 308 310 310 309 310 311 311 316 313 314 315 312 313 314 315 315 315 315 316 316 318 319 319 322
295 296 296 296 296 296 297 297 296 296 296 298 301 302 303 304 304 303 305 304 302 302 305 307 309 309 308 308 308 312 314 313 309 316 314 313 314 316 315 314 314 314 315 317 319 320 319
295 295 296 296 296 296 297 296 296 297 297 299 301 302 302 304 306 305 305 304 302 302 305 306 307 308 307 307 305 309 310 310 308 311 321 319 316 317 317 315 314 314 314 316 318 316 319
295 296 296 295 296 296 297 297 296 297 297 299 300 302 302 304 304 304 304 304 304 303 302 305 306 306 307 307 306 308 308 308 308 308 318 319 320 317 319 318 316 317 315 315 317 318 317
295 295 295 295 295 295 296 296 296 297 297 299 300 300 303 305 304 304 304 304 304 304 303 304 305 306 307 307 306 306 308 307 309 310 318 318 321 321 320 319 318 317 317 316 316 316 318
294 294 294 294 295 296 296 296 297 297 298 300 298 302 303 304 304 305 305 304 304 304 304 304 305 305 305 306 306 306 305 305 307 310 312 317 318 318 318 319 319 318 315 315 315 316 316
294 294 294 295 296 296 297 297 297 298 298 300 299 299 304 305 305 305 305 305 303 304 303 303 304 304 304 304 304 304 304 305 306 307 311 315 316 316 320 318 318 318 317 316 316 316 316
295 295 296 296 297 297 297 297 297 298 298 300 300 301 303 306 305 305 304 304 304 304 304 305 303 303 304 302 303 303 304 304 305 305 309 316 316 314 318 316 322 318 313 315 316 316 315
297 297 297 297 297 297 298 298 298 298 298 300 300 301 303 304 306 305 305 304 303 304 304 304 303 304 302 303 305 306 304 306 308 311 312 316 315 317 316 316 315 314 316 315 318 318 314
297 297 297 297 297 298 299 298 299 299 298 300 299 302 302 303 304 304 305 304 304 303 303 303 304 302 303 303 305 310 305 306 309 314 310 313 312 313 317 317 317 312 316 315 318 317 315
297 297 297 297 297 297 297 299 299 299 299 300 300 300 303 303 303 304 304 306 304 304 304 304 304 303 302 303 308 310 309 306 307 312 314 315 315 317 316 317 314 313 315 316 321 314 315
298 298 297 298 297 297 297 297 299 300 300 300 300 300 300 298 303 304 304 305 304 304 304 303 305 302 300 302 304 307 303 305 306 308 313 314 315 312 315 316 314 312 315 321 316 314 314
300 300 299 299 299 299 298 298 297 298 299 301 296 300 299 301 302 302 304 303 303 303 304 304 303 302 302 302 301 302 301 297 306 308 309 309 309 310 311 311 310 311 313 313 314 315 315

GFSGBSN_925_thetae_063.txt.gz
Theta_e
303 303 304 305 304 303 304 304 303 303 303 303 303 303 303 304 305 305 304 303 303 302 302 303 304 306 304 309 307 303 306 309 315 312 310 310 313 312 314 311 310 312 313 312 313 314 314
303 304 303 303 303 303 303 303 303 303 303 303 303 303 303 303 302 302 302 301 300 300 301 301 304 305 308 307 303 305 310 313 314 313 310 309 311 312 312 312 313 314 313 315 315 315 318
303 302 303 302 302 302 302 302 302 303 303 303 303 303 303 303 303 302 302 302 300 299 299 302 307 306 306 304 301 305 311 314 314 310 311 310 310 312 313 315 314 315 317 316 315 315 318
305 303 302 301 301 302 302 302 302 302 301 301 302 302 304 304 304 304 303 303 302 299 301 306 307 307 307 301 301 305 303 306 308 308 310 311 311 312 313 314 314 316 315 317 314 319 319
303 304 302 303 302 302 301 301 301 302 303 303 303 303 304 304 304 304 304 304 302 304 307 307 306 307 307 305 310 307 309 308 306 307 311 312 311 313 313 314 316 314 317 315 314 316 321
301 302 303 301 301 300 301 301 302 301 303 303 303 303 303 303 303 303 304 304 302 309 308 308 308 306 306 304 309 312 313 311 309 311 313 313 312 314 313 314 315 317 317 315 316 317 318
300 301 301 302 300 300 301 300 301 302 301 302 302 302 302 302 303 303 304 300 305 306 304 310 310 307 306 313 314 314 313 313 311 312 317 314 317 316 313 315 314 314 315 315 314 313 315
300 300 301 300 299 300 300 300 300 300 301 300 301 301 301 302 303 303 302 303 305 302 306 305 307 307 308 310 311 311 312 314 312 311 314 314 318 317 313 314 314 315 316 317 316 315 316
300 299 299 299 299 299 301 300 298 300 299 299 300 300 301 302 303 303 302 303 302 302 306 307 307 307 307 307 308 308 311 312 312 313 314 317 316 315 314 314 315 316 317 316 316 315 316
300 298 298 299 299 298 298 298 300 299 298 299 299 299 300 301 303 302 301 304 303 303 310 308 309 309 307 308 309 308 308 311 312 313 314 313 314 314 315 315 315 317 315 316 315 316 320
299 300 299 299 298 298 298 298 298 298 298 298 298 299 299 300 304 303 303 302 302 306 309 305 310 308 310 307 307 311 309 309 312 313 314 315 315 315 315 315 315 315 316 316 316 317 318
299 298 298 299 297 297 298 299 298 299 298 298 297 297 298 300 303 303 302 302 304 312 310 309 310 312 311 311 310 311 309 309 311 314 315 314 314 315 315 314 314 315 316 318 318 319 323
297 297 298 299 298 299 298 298 299 298 297 297 297 298 300 300 304 302 302 302 309 310 309 307 308 308 309 310 312 311 310 310 312 316 318 315 315 314 314 316 315 317 319 321 324 325 325
297 299 298 299 299 297 296 298 298 298 297 297 297 299 299 300 302 304 303 305 308 306 311 309 308 308 309 311 311 311 311 309 310 312 314 317 316 315 314 316 317 317 318 323 325 325 323
297 297 298 298 298 295 297 297 298 298 297 297 297 298 299 300 302 304 303 304 305 306 309 309 309 309 311 311 311 312 311 310 309 312 314 315 315 312 313 314 317 317 319 319 322 323 325
296 296 296 296 297 297 297 297 298 298 298 296 299 299 300 300 302 303 303 305 303 308 307 308 310 310 310 310 311 313 313 311 311 313 313 315 318 315 314 314 314 318 318 320 321 324 326
296 296 296 297 297 297 295 297 297 297 297 296 298 301 300 301 303 304 305 305 302 302 302 307 309 309 309 309 308 313 314 309 309 314 313 315 316 316 316 316 316 317 318 320 321 322 324
295 295 295 296 296 296 297 297 297 297 296 296 298 300 301 303 303 304 306 304 302 302 304 306 307 309 309 308 307 309 311 311 308 309 316 314 316 316 317 314 315 315 318 320 323 323 322
295 296 295 296 296 297 297 296 297 296 296 297 300 300 301 302 303 304 305 304 302 302 304 306 307 307 308 308 308 309 309 308 308 309 310 321 317 317 316 316 314 316 316 318 319 319 322
294 294 295 295 295 297 296 296 297 296 296 297 299 301 301 302 302 303 305 304 304 302 302 302 305 306 306 307 307 307 306 306 308 310 315 319 321 318 318 320 319 318 316 316 319 322 321
294 294 294 295 295 296 296 296 296 297 296 297 299 299 301 302 300 303 304 304 303 304 303 303 303 305 306 306 306 306 306 306 306 311 313 319 320 321 320 319 319 319 318 317 316 318 319
294 295 295 295 296 296 295 295 295 295 296 297 298 301 301 301 303 302 304 304 304 303 304 304 305 305 306 306 306 306 306 306 306 308 309 310 320 319 319 318 318 319 318 316 316 316 317
293 293 294 293 294 294 295 295 294 295 297 297 298 298 301 301 302 304 306 304 304 304 304 303 304 304 304 304 304 304 304 305 306 306 307 310 317 318 318 317 317 320 317 316 317 316 317
295 295 295 295 295 295 295 295 295 296 296 297 298 299 301 301 303 303 304 304 304 304 304 304 304 304 304 303 304 305 304 305 305 306 306 309 316 315 318 315 315 318 315 314 317 316 316
296 297 297 297 296 296 296 296 296 296 297 298 298 300 301 301 301 304 304 304 304 304 304 304 304 304 303 304 306 308 306 306 308 306 307 308 310 318 318 317 314 312 315 319 320 318 318
297 297 297 297 298 297 297 297 297 297 297 298 298 299 301 301 301 302 304 304 304 304 304 304 304 303 304 304 306 308 309 306 309 313 310 309 311 318 317 320 317 314 316 316 317 318 317
297 297 297 297 297 297 297 297 297 297 297 298 299 298 299 300 301 302 304 306 304 304 305 303 303 304 304 306 308 309 310 306 309 313 312 313 315 316 318 318 316 313 315 316 316 315 316
297 298 298 298 297 297 297 298 298 298 298 299 298 299 300 298 301 303 304 305 305 304 305 304 305 304 304 306 307 307 308 308 308 308 314 314 315 316 317 319 316 311 315 317 315 315 315
299 299 299 300 299 297 297 296 296 297 300 299 299 299 299 300 300 301 303 303 304 304 304 304 305 303 303 305 305 306 307 304 308 309 308 311 314 316 315 316 311 312 313 311 312 313 314

GFSGBSN_925_thetae_066.txt.gz
Theta_e
304 304 304 303 304 304 304 304 303 303 303 303 303 303 303 305 305 304 302 302 302 301 300 299 301 303 307 308 305 305 304 310 317 315 314 315 316 316 316 315 316 316 315 317 317 317 317
303 303 303 303 303 302 303 302 302 302 303 303 303 303 302 303 305 304 304 304 303 303 303 301 302 304 309 307 303 307 310 312 315 315 314 315 316 316 315 316 316 316 316 316 316 317 319
305 304 303 302 302 302 302 301 302 302 302 301 301 301 303 304 304 304 303 304 304 304 303 301 305 307 310 307 303 304 304 307 313 313 317 317 315 314 314 315 316 316 317 317 318 318 319
303 304 304 303 302 302 302 302 301 301 301 303 304 303 303 303 303 302 303 303 304 304 302 306 307 308 311 305 303 305 305 306 305 313 312 313 315 316 316 316 317 317 317 318 318 317 318
302 302 302 303 302 301 301 301 301 301 302 301 303 303 303 303 302 302 303 303 303 302 307 307 309 310 309 305 308 308 311 308 307 312 312 313 315 317 317 316 317 318 319 319 318 317 320
301 302 301 302 302 301 300 301 301 300 301 301 300 302 302 302 302 302 303 302 303 309 309 309 309 309 308 309 306 312 313 312 309 308 313 316 317 318 318 317 318 319 320 318 319 319 319
302 302 300 301 302 301 300 300 301 300 300 301 300 301 301 301 302 303 304 304 306 308 305 306 309 311 311 309 310 310 314 314 313 309 316 318 319 319 318 318 317 317 318 318 317 317 316
301 301 300 301 302 301 299 300 301 299 298 300 299 300 300 301 301 303 305 306 304 303 306 305 307 307 306 309 310 312 313 314 315 311 313 320 321 318 318 317 317 316 317 318 317 318 318
300 301 301 300 300 299 300 300 300 299 299 299 299 299 299 300 301 305 305 305 304 303 307 307 307 308 308 307 308 309 310 310 313 316 312 318 317 318 318 317 316 316 317 318 317 318 318
299 299 299 300 300 301 299 298 299 299 299 298 298 298 299 299 304 304 305 305 304 304 310 308 310 310 308 308 308 307 310 310 309 313 316 314 313 316 318 318 317 317 317 317 318 318 316
299 299 300 300 300 299 299 297 298 298 298 298 298 298 298 298 302 304 304 304 304 306 308 307 309 309 308 308 307 308 309 310 309 310 315 316 313 314 316 317 317 317 317 318 318 319 317
299 299 299 298 298 297 297 297 298 297 297 298 297 297 298 300 304 304 304 304 305 311 306 309 310 312 311 309 308 312 308 308 310 313 313 316 315 314 314 315 317 316 317 317 318 318 321
298 298 298 297 298 297 298 298 297 296 298 297 297 298 299 301 303 303 304 305 310 307 306 309 310 310 310 309 312 311 310 309 310 312 313 314 315 316 315 315 316 317 318 321 322 324 321
297 297 298 298 299 299 298 297 296 296 297 297 297 297 300 301 302 303 304 306 308 304 306 308 310 310 308 312 312 312 313 311 310 311 311 312 317 316 317 317 318 317 318 322 323 325 325
297 296 297 297 297 297 297 296 295 297 297 296 297 299 300 300 302 303 304 307 303 304 307 310 310 309 311 311 311 312 312 312 310 311 313 314 316 316 316 317 317 319 321 320 323 325 325
297 296 296 297 296 295 296 296 297 296 296 297 299 300 300 300 302 304 306 305 304 305 309 309 308 310 311 310 312 314 313 312 312 310 312 314 317 316 316 316 318 320 319 321 321 325 327
296 296 296 296 296 296 296 297 296 295 296 296 298 301 300 301 302 304 306 305 305 304 305 308 310 310 310 309 308 316 317 313 311 309 311 314 317 318 316 318 318 319 320 321 321 322 326
295 295 295 295 294 295 296 296 296 294 295 296 298 300 302 303 303 304 304 303 304 304 304 305 307 309 310 309 309 311 314 310 308 311 313 314 318 319 318 317 317 318 319 320 323 324 323
295 295 295 295 295 296 296 296 296 296 294 298 298 299 301 302 305 304 303 304 304 304 304 305 306 308 308 309 308 308 311 309 307 309 313 318 316 317 316 317 317 318 318 318 319 320 323
295 293 295 295 295 295 296 296 296 296 295 297 299 301 301 302 303 304 304 304 305 304 305 305 306 307 308 308 307 307 307 307 307 310 313 317 320 316 315 315 318 318 318 318 320 322 321
294 294 295 295 294 295 295 296 296 296 295 296 299 301 300 303 302 302 303 303 306 305 304 304 305 305 306 307 307 307 307 306 307 308 309 314 323 322 321 320 320 321 321 319 318 319 321
293 294 294 295 294 295 295 296 295 296 295 296 299 300 301 301 303 302 301 303 304 304 304 305 305 305 307 307 307 307 307 307 307 308 309 311 319 317 317 317 319 320 320 320 320 320 319
294 294 294 294 294 294 295 295 296 295 295 297 297 297 301 300 301 302 304 304 305 305 305 305 305 306 307 307 306 306 306 307 307 308 308 310 313 316 316 315 314 318 320 319 319 319 320
295 295 295 295 295 295 295 295 294 294 295 296 297 298 298 299 301 301 301 302 305 305 306 305 305 306 306 305 306 306 307 307 308 308 308 308 316 314 317 316 317 319 317 317 319 319 318
296 296 297 296 296 296 296 295 295 295 294 296 296 298 300 301 300 300 301 302 303 305 305 305 305 304 304 306 308 309 310 309 309 309 309 309 311 320 314 315 315 313 316 317 317 321 317
297 297 296 297 298 298 297 296 296 295 295 296 296 296 299 302 301 300 301 301 304 305 306 306 304 304 305 306 307 309 311 308 310 313 309 309 310 315 317 315 312 313 317 317 319 316 314
296 297 297 297 298 298 297 298 296 296 296 296 296 296 298 299 301 301 302 303 304 306 305 305 306 305 304 308 309 309 309 308 310 315 314 311 312 313 315 317 314 314 316 317 314 316 314
297 297 297 297 297 297 297 298 298 296 296 296 296 297 298 299 300 302 302 303 304 306 306 305 306 306 308 308 308 308 309 308 308 311 313 312 313 314 313 315 318 315 314 314 316 314 316
297 298 299 299 299 298 297 297 298 297 297 297 298 297 298 300 301 300 301 302 303 304 306 305 304 306 307 308 308 308 308 310 309 310 309 313 312 314 313 314 316 315 314 315 314 315 315

GFSGBSN_925_thetae_069.txt.gz
Theta_e
303 304 304 304 303 303 304 304 302 302 302 303 303 303 303 303 306 306 305 305 304 304 304 304 304 305 306 312 312 309 306 310 319 315 317 317 319 320 319 317 317 318 318 318 318 318 318
305 305 304 303 302 304 303 303 302 302 302 302 302 301 301 303 303 304 303 303 303 303 303 304 305 306 308 314 312 307 307 306 312 318 318 317 318 319 318 318 318 318 318 318 317 318 318
304 304 304 305 303 302 302 302 302 301 301 301 303 304 304 303 303 303 302 302 302 303 303 303 305 307 308 311 311 310 307 306 305 310 317 317 317 318 319 319 318 318 317 318 319 318 318
304 303 304 303 304 303 301 302 301 302 301 303 302 301 303 303 302 302 302 302 303 303 302 305 307 310 310 308 310 309 309 308 308 307 308 314 317 319 318 317 317 318 318 318 319 319 319
304 303 302 302 302 303 302 301 300 301 300 301 301 301 301 302 302 301 301 302 303 303 308 308 311 311 311 308 309 308 309 309 311 311 308 311 314 317 319 319 319 320 320 320 321 320 319
302 303 304 303 301 302 303 301 299 300 300 300 301 301 300 301 301 301 302 304 305 307 310 311 310 313 312 310 311 310 314 314 314 311 310 313 316 318 318 321 321 320 321 321 322 322 319
301 301 301 302 301 301 303 301 299 301 300 299 301 300 300 300 300 300 304 308 308 313 308 307 309 312 310 309 311 312 312 314 315 314 313 311 316 319 319 319 320 320 321 322 322 321 320
301 300 301 302 302 302 302 301 299 301 300 298 300 299 299 299 299 301 306 308 307 306 308 308 308 308 307 307 308 311 314 316 316 318 315 310 314 316 317 319 319 320 320 321 321 320 319
300 301 300 300 301 301 300 300 300 299 299 298 299 298 299 299 299 304 306 307 306 307 309 308 309 309 310 309 309 309 313 316 316 317 319 314 314 316 317 319 321 321 321 321 321 321 320
301 301 300 299 300 301 301 301 300 299 298 299 298 298 298 298 301 306 305 306 307 307 312 311 311 312 311 310 310 308 310 314 314 315 316 318 315 317 318 319 321 321 320 320 320 320 322
300 300 300 300 300 299 299 299 298 297 298 298 299 298 298 297 302 303 305 305 307 308 309 309 311 311 311 311 309 311 309 313 315 314 314 319 318 315 318 319 320 321 320 320 320 321 321
299 299 299 299 299 298 297 297 298 297 298 296 297 297 297 300 302 304 304 307 307 316 309 309 311 312 314 313 311 312 309 310 312 314 314 313 315 317 315 316 318 319 320 320 320 321 324
298 298 298 298 298 296 298 298 297 298 297 296 297 297 298 300 303 305 305 307 312 309 305 307 311 311 311 311 313 311 311 312 315 318 318 316 316 316 317 314 317 317 319 323 324 325 325
297 297 297 297 298 297 298 298 298 297 296 296 297 297 298 300 301 302 305 309 309 304 306 306 309 309 307 309 314 314 314 311 312 312 316 321 320 317 316 317 317 319 320 325 328 329 326
297 297 297 298 297 297 297 297 297 296 296 297 297 297 299 300 301 303 307 310 305 305 304 307 309 306 307 311 312 315 314 315 312 311 316 318 316 315 318 317 316 319 320 320 323 327 330
296 296 296 296 297 297 297 297 296 297 296 296 298 299 300 301 302 303 306 306 306 305 308 308 306 305 309 311 313 316 315 314 313 312 312 315 317 316 318 317 317 319 320 321 322 328 330
295 295 296 296 296 295 297 296 296 295 297 296 297 301 300 301 302 304 307 305 305 305 305 307 307 307 309 310 311 315 318 316 312 312 312 313 314 318 318 320 320 318 320 321 322 324 327
295 295 296 296 296 296 296 295 296 296 296 295 298 302 302 302 304 305 305 305 305 305 305 305 305 307 309 310 310 311 319 312 309 309 314 312 314 319 320 319 319 319 321 322 326 325 326
295 295 295 295 295 296 296 296 296 295 296 296 299 300 301 303 306 306 304 304 304 304 305 305 305 305 307 308 310 310 314 313 309 308 312 313 316 316 319 321 319 320 321 321 322 324 329
295 295 295 295 294 294 295 294 295 296 296 296 300 302 301 304 304 305 305 305 304 305 304 305 306 306 307 309 310 309 310 309 308 307 311 311 318 319 321 321 319 320 320 320 322 326 324
294 294 295 295 295 294 296 295 294 296 295 296 299 301 301 303 304 303 304 305 304 304 305 304 305 306 307 308 309 309 309 309 308 309 309 312 321 322 318 320 320 319 319 320 320 321 322
294 294 295 294 295 295 295 295 295 296 295 297 299 299 301 302 303 303 303 304 304 304 305 306 305 305 306 306 307 307 308 309 309 309 309 310 318 319 322 318 319 320 319 318 319 320 320
294 294 295 295 295 295 295 294 295 295 295 297 297 297 301 301 302 304 304 303 302 303 304 305 306 305 306 307 308 309 309 309 309 310 310 309 314 318 325 319 318 320 320 320 320 320 321
295 295 295 296 295 295 295 295 294 295 294 297 297 298 300 300 301 302 301 304 304 304 306 306 306 306 307 307 308 308 308 308 309 309 309 310 312 314 320 320 321 322 319 318 321 320 320
295 295 296 296 296 296 295 295 294 295 295 296 296 298 300 300 300 300 301 302 303 304 306 307 307 306 307 307 309 309 310 309 311 309 310 309 311 316 315 319 319 316 318 320 323 321 317
296 296 297 297 296 297 296 296 295 295 295 295 297 297 299 303 301 300 300 301 303 304 307 306 307 306 305 309 312 311 312 311 311 311 310 309 310 315 317 320 319 316 318 317 316 322 315
296 296 296 296 297 297 297 297 297 296 295 295 296 296 298 301 299 302 302 302 302 304 306 307 307 307 305 308 311 311 311 310 312 315 312 313 312 313 316 316 313 315 316 317 318 320 316
296 296 297 297 298 298 298 298 298 297 296 296 296 296 297 299 299 300 302 303 303 304 308 308 306 307 306 311 311 310 311 311 310 312 313 312 313 313 313 314 315 316 315 317 318 316 316
297 297 297 298 298 298 298 298 298 298 297 296 296 296 297 298 300 301 299 301 303 304 305 305 306 307 308 309 311 310 311 311 310 312 313 314 311 314 312 313 316 316 317 315 315 315 314

GFSGBSN_925_thetae_072.txt.gz
Theta_e
306 306 305 304 304 303 305 305 304 302 302 302 302 303 304 305 306 305 303 302 302 301 301 302 304 307 307 309 313 313 312 309 314 318 316 317 317 318 319 319 318 318 317 318 318 319 319
304 305 304 305 305 304 304 304 303 302 302 301 302 302 302 304 305 303 302 302 301 301 301 303 303 307 308 309 309 312 311 308 307 312 319 317 318 318 319 319 319 318 317 317 318 319 319
306 304 303 304 304 304 304 302 302 302 302 302 302 302 302 301 302 302 302 301 300 301 301 303 304 308 309 308 307 308 310 310 308 308 310 318 317 317 318 318 318 318 318 318 318 318 319
304 305 304 304 302 301 302 303 302 301 300 301 301 301 302 301 301 301 301 300 300 301 304 304 307 310 310 308 308 310 311 312 312 309 308 308 312 316 319 319 319 319 318 319 318 318 319
303 303 303 304 304 302 301 303 303 301 299 301 300 300 301 300 300 300 299 299 300 304 305 308 310 312 313 310 311 310 310 310 311 311 309 310 310 316 318 319 320 318 319 318 318 319 320
302 302 302 302 303 303 301 303 302 301 299 301 300 299 300 300 300 300 299 303 307 308 308 311 312 313 313 312 311 311 312 315 314 313 313 310 310 315 317 319 323 320 319 318 320 321 321
302 301 302 301 303 303 302 303 303 301 299 301 301 300 300 299 299 298 300 306 309 311 312 311 311 312 311 312 308 309 312 313 315 315 316 310 313 316 317 318 320 320 319 320 321 321 322
302 301 301 302 301 301 303 302 302 301 299 299 299 299 300 298 298 298 300 309 308 306 309 308 308 308 308 307 309 309 310 315 316 318 317 316 313 315 314 318 318 319 320 321 321 321 321
301 302 301 301 301 300 301 302 301 301 299 298 298 298 299 298 298 300 306 307 306 308 309 309 310 310 310 311 311 310 308 313 315 317 318 321 318 312 312 314 319 320 321 321 321 320 322
300 300 300 301 301 300 300 300 301 301 299 298 297 299 298 297 300 304 306 307 307 307 312 313 312 313 313 311 312 310 309 311 317 318 317 320 319 314 315 317 316 320 320 321 321 322 323
299 299 300 300 300 300 300 299 298 299 299 298 298 297 299 297 300 302 304 306 307 308 316 312 311 312 312 312 312 311 309 311 315 315 317 319 319 318 318 318 317 319 321 323 322 322 323
297 299 299 299 299 300 298 297 299 299 299 298 298 297 297 299 301 302 304 306 308 314 314 310 313 314 314 314 313 313 310 311 313 314 315 315 314 315 317 318 318 318 320 323 323 323 325
297 298 298 298 298 299 299 299 299 298 298 298 298 297 298 299 301 302 304 306 313 312 306 306 309 311 311 310 309 313 312 311 313 316 316 316 315 315 315 317 318 318 324 329 328 326 327
296 297 297 298 298 298 297 298 297 298 298 298 297 297 298 298 299 301 304 307 312 307 309 307 309 307 308 307 307 314 313 313 311 314 314 319 321 316 317 318 320 318 322 325 329 330 326
296 296 296 297 297 297 298 298 298 297 298 297 297 298 299 299 299 301 306 308 307 307 306 305 306 308 308 306 311 311 316 315 313 312 315 318 319 317 317 318 318 320 320 319 325 326 332
296 296 296 296 296 297 297 297 296 298 296 297 298 299 299 299 299 302 305 307 307 307 306 308 308 307 305 307 312 313 316 316 317 314 312 314 320 317 317 317 319 320 319 325 323 327 335
296 296 296 296 296 296 297 296 296 297 297 296 297 300 298 299 301 304 305 305 305 305 306 305 307 307 307 308 309 310 314 317 314 313 312 313 317 318 317 322 322 321 320 321 322 323 332
295 296 296 296 296 296 296 297 296 295 296 297 298 300 299 302 304 304 304 304 305 305 305 305 306 306 308 309 310 311 312 316 311 310 314 315 316 317 316 315 319 320 320 320 326 326 324
295 295 295 296 296 296 296 296 295 296 296 295 300 299 298 303 304 305 303 304 304 304 305 305 306 305 305 306 307 309 311 313 311 313 312 310 317 316 316 317 321 323 321 321 322 327 329
295 295 295 295 295 296 296 295 295 295 295 295 301 300 300 305 304 304 304 305 305 305 304 305 305 306 306 305 306 310 312 313 311 310 309 311 314 318 320 322 321 325 322 322 324 328 330
294 294 295 295 295 295 296 295 295 295 296 295 300 300 302 303 305 304 304 307 305 305 304 304 304 305 306 309 307 309 308 310 310 309 310 312 319 320 319 318 321 324 323 322 324 325 328
294 294 295 295 295 295 295 296 296 294 295 296 301 298 299 302 303 303 303 303 304 306 305 305 305 304 304 305 306 307 307 308 312 311 310 311 315 314 316 317 319 324 322 322 324 324 323
294 294 294 295 295 295 295 295 296 295 295 296 296 297 300 301 302 303 305 304 302 303 304 306 306 307 307 307 308 309 309 310 311 311 311 310 312 318 318 319 321 322 322 322 321 320 321
294 295 295 295 296 296 296 295 295 294 295 296 297 298 300 300 300 302 303 303 304 304 304 303 304 307 308 308 308 308 308 308 309 310 309 310 311 313 317 317 323 319 320 320 323 323 322
295 296 296 296 296 296 297 296 295 295 295 296 295 299 300 300 299 299 300 302 304 304 304 304 304 307 308 308 308 308 309 309 309 308 309 310 311 313 319 318 318 318 320 324 321 325 322
295 296 296 296 297 298 297 296 296 295 296 296 296 297 299 302 300 299 300 301 303 304 304 306 308 307 306 308 309 309 309 309 310 310 309 310 311 314 317 319 321 317 320 317 317 321 317
295 296 297 297 296 297 296 297 297 296 295 296 296 297 298 299 299 299 302 303 303 303 304 306 307 307 306 306 308 311 310 310 312 312 313 312 313 314 316 319 315 315 319 318 320 321 318
296 296 296 296 296 297 297 297 297 297 296 296 296 297 297 299 298 299 300 301 304 305 307 307 307 307 306 306 308 310 311 312 312 312 312 313 314 315 314 315 317 316 317 319 319 318 315
297 297 297 297 297 297 298 298 298 297 297 296 296 296 297 299 298 298 299 300 301 301 305 303 306 306 306 308 309 312 313 314 312 313 312 313 312 315 312 314 317 317 316 316 315 314 312

GFSGBSN_925_thetae_075.txt.gz
Theta_e
305 305 305 305 306 305 305 305 304 302 302 302 301 301 302 305 305 305 303 302 301 301 300 300 302 307 305 307 309 308 309 311 309 314 316 316 313 311 313 315 316 317 316 315 315 315 316
306 305 305 304 304 304 305 305 302 302 302 302 301 300 301 302 304 303 301 301 300 299 299 300 304 307 308 307 304 307 308 310 309 308 309 314 316 313 315 316 315 317 317 316 316 315 314
304 305 305 304 304 303 301 302 303 303 302 301 301 302 300 300 302 301 300 300 299 298 299 300 305 308 308 307 304 304 307 309 311 311 308 308 308 309 314 316 316 317 317 316 316 315 314
303 304 304 304 303 303 302 301 302 303 303 301 301 300 299 299 300 300 299 299 298 298 300 304 306 309 309 304 305 308 309 310 310 312 312 309 308 307 313 315 318 318 317 316 316 316 316
303 303 303 303 302 302 303 302 301 302 302 300 299 301 300 299 300 300 299 297 300 304 306 307 308 310 313 311 310 310 310 310 311 311 312 310 309 308 314 316 317 316 317 317 317 317 316
302 303 302 302 301 303 303 303 303 303 302 300 298 300 299 299 300 298 298 299 308 309 310 309 310 313 313 312 309 308 310 313 314 312 312 310 308 307 314 315 319 319 319 316 316 317 316
303 303 302 302 302 302 301 302 303 302 301 300 300 299 298 298 299 298 297 301 305 308 305 310 312 313 313 311 308 306 307 312 314 315 314 312 307 308 309 315 316 318 319 319 318 317 319
302 301 301 302 302 302 301 301 301 302 301 301 298 298 298 298 298 297 299 303 307 306 307 308 308 307 307 306 306 307 307 310 313 315 315 315 310 310 312 315 317 318 318 317 318 319 320
300 301 301 302 302 302 301 301 301 300 300 301 298 298 298 299 298 300 302 305 307 307 306 306 307 308 309 309 309 309 308 306 313 314 315 317 318 317 317 312 316 314 315 318 319 319 319
299 299 299 301 301 301 301 301 301 300 300 299 298 298 297 297 300 299 301 303 306 307 309 309 311 310 311 311 311 310 309 307 316 317 317 319 317 318 320 316 314 316 316 318 319 321 325
298 298 299 300 300 299 299 300 300 300 300 299 298 298 298 297 298 300 301 304 305 307 311 313 312 311 312 311 311 310 309 307 315 315 316 315 319 318 320 318 314 316 319 320 323 324 325
297 297 298 298 299 299 299 299 299 299 299 299 298 298 298 297 299 300 301 302 306 310 312 313 312 311 312 311 313 310 308 309 312 314 315 315 312 316 317 317 315 318 319 321 322 324 329
297 297 297 298 298 298 299 299 299 298 298 297 298 298 298 298 298 298 300 303 309 310 309 309 314 314 314 313 313 312 309 310 313 314 314 313 314 314 315 316 316 317 321 327 330 330 330
297 297 297 297 297 297 298 298 298 298 298 297 299 298 297 298 299 299 300 306 308 308 304 307 310 309 308 308 308 311 309 309 310 312 314 314 316 316 315 316 319 319 323 328 332 329 325
296 296 296 296 297 297 297 297 298 297 297 297 297 297 297 297 298 299 302 303 305 304 306 307 307 306 307 308 307 312 312 312 312 309 313 316 318 315 315 317 318 321 324 320 326 324 329
296 296 297 297 297 297 297 297 297 296 297 298 296 297 298 298 299 300 302 302 303 303 306 306 307 308 307 305 310 312 316 317 317 314 312 314 317 316 316 318 319 320 319 322 323 329 332
295 295 296 296 296 296 296 297 297 297 296 296 297 299 298 298 299 300 302 302 303 304 304 306 306 307 308 308 309 308 317 315 314 312 311 313 316 317 319 321 322 321 323 323 323 326 330
295 296 296 296 296 296 296 296 296 296 296 295 297 298 297 300 300 302 301 301 302 303 304 305 305 306 306 307 307 308 312 315 311 311 315 314 318 318 316 316 318 317 323 323 327 328 325
295 295 296 296 295 296 296 296 296 296 295 295 298 297 297 299 301 301 302 302 302 303 304 305 305 305 306 305 306 307 314 312 311 312 311 311 317 320 316 315 315 319 322 322 322 323 327
295 295 295 295 295 295 295 296 296 296 295 295 296 297 296 296 297 302 302 303 303 303 304 303 304 304 305 307 306 306 309 313 311 311 311 311 313 315 319 320 318 321 324 323 322 328 326
295 294 294 295 295 295 296 296 296 296 296 295 294 298 299 294 300 301 303 305 305 305 305 304 305 304 305 305 307 308 308 313 311 311 310 312 313 315 316 314 317 318 320 322 324 324 329
293 294 294 295 295 295 295 296 296 295 295 295 297 298 299 300 300 303 302 303 303 304 305 306 306 305 306 304 304 306 308 309 310 311 311 311 313 313 314 314 315 319 320 321 325 323 324
294 294 294 295 295 295 296 296 296 295 295 292 295 296 297 299 299 301 304 304 303 303 303 305 307 307 308 308 308 308 308 308 310 311 312 312 311 311 315 315 316 321 322 324 324 324 325
294 294 295 295 295 296 296 296 296 296 296 295 296 297 295 296 297 298 299 301 305 304 304 304 305 306 308 308 307 307 307 307 309 310 310 310 311 311 314 316 324 318 318 321 323 324 323
295 295 295 296 296 296 297 296 296 295 296 296 295 296 297 295 297 298 299 300 301 303 304 304 305 306 304 307 308 309 305 307 308 308 310 309 311 312 314 316 316 319 321 320 324 321 318
295 295 295 296 296 296 296 297 295 296 296 296 295 296 296 298 296 298 300 301 301 301 303 304 305 304 304 306 306 306 307 308 309 309 307 307 309 311 314 317 321 318 318 315 317 322 316
294 295 295 296 296 296 296 297 296 296 296 296 296 295 297 298 297 297 299 300 300 302 302 303 306 306 304 303 303 305 308 307 309 310 309 309 311 313 313 315 315 319 317 315 321 320 319
295 295 295 296 296 296 296 296 297 297 296 296 295 296 296 296 296 297 298 298 300 301 304 304 305 306 303 302 304 304 306 309 312 312 311 310 313 312 311 313 314 318 318 321 319 316 313
295 296 296 297 297 296 297 296 297 297 297 296 295 295 296 297 295 297 297 298 299 299 301 299 303 304 306 305 305 307 310 310 311 315 313 313 311 312 311 312 316 315 317 313 311 311 310

GFSGBSN_925_thetae_081.txt.gz
Theta_e
304 305 305 305 304 303 304 304 302 302 302 302 302 302 302 303 303 303 302 300 300 301 303 303 303 304 306 306 305 304 305 304 306 311 318 316 310 307 307 307 309 313 315 314 314 313 312
304 305 305 305 304 303 304 304 302 301 302 303 303 303 302 302 302 302 300 299 299 299 300 302 303 304 305 305 301 302 305 305 305 313 315 312 314 311 309 309 309 311 312 312 313 313 313
304 304 304 304 304 303 302 302 303 303 303 303 303 302 301 301 301 300 298 298 298 297 297 301 303 304 305 305 302 301 302 302 306 308 307 308 307 306 307 308 311 314 314 313 313 313 312
303 304 303 303 303 303 302 302 302 302 304 302 303 302 300 299 297 298 298 299 298 302 303 304 304 305 307 305 305 307 309 308 307 308 308 309 310 306 305 307 311 315 314 316 314 313 313
303 303 303 303 302 303 303 302 302 302 302 302 303 302 301 299 297 297 298 299 305 306 307 304 306 307 308 307 310 311 309 307 309 310 309 309 307 306 306 308 310 313 315 314 314 314 313
305 304 303 302 302 303 302 302 302 301 300 301 301 300 300 298 297 297 298 303 307 308 307 307 308 309 309 309 310 309 306 309 309 312 310 308 304 305 307 309 311 314 315 313 314 314 314
302 302 302 302 301 302 303 303 302 301 299 300 300 301 299 298 297 297 300 303 303 305 304 306 309 311 310 310 308 307 307 305 309 312 312 310 307 307 305 308 310 313 314 315 314 314 315
301 300 301 301 301 301 302 302 302 301 301 301 300 300 301 297 297 297 297 301 300 300 302 305 306 306 306 307 307 307 307 305 312 314 313 314 311 309 307 307 307 309 311 312 313 314 315
300 299 299 300 300 301 301 301 301 300 300 300 300 299 297 297 296 298 297 299 298 299 304 306 305 305 306 306 306 305 306 305 310 313 313 314 315 314 311 309 312 313 316 313 314 315 314
299 298 298 298 299 299 300 300 300 299 299 299 299 297 296 297 297 297 297 297 298 301 305 305 307 306 306 306 306 305 305 305 305 312 312 314 315 317 316 318 317 319 316 316 313 318 318
299 298 298 297 297 298 298 299 299 299 299 299 299 297 297 297 298 297 297 297 299 303 301 302 308 307 307 306 309 305 306 305 307 314 313 314 315 316 317 317 317 316 317 316 317 318 319
297 297 298 297 297 297 297 298 298 298 298 298 298 297 297 298 298 297 297 298 302 304 303 304 310 309 308 309 310 306 306 307 309 313 313 311 311 314 314 314 314 316 316 316 316 320 322
297 296 297 297 297 297 297 297 297 297 297 298 297 297 297 298 297 298 297 299 303 304 300 304 306 306 309 311 311 307 308 310 311 314 314 312 312 312 313 315 314 316 318 317 318 320 320
296 297 296 296 297 297 297 297 297 297 297 297 297 297 296 296 296 298 297 301 302 298 300 303 305 305 308 311 311 308 306 308 310 309 310 312 312 311 313 313 315 316 318 320 324 323 324
297 296 295 296 296 296 297 297 297 297 297 296 296 295 296 295 296 297 296 300 300 300 302 303 304 309 310 309 306 309 307 307 308 309 310 312 314 312 313 313 314 319 321 319 325 323 328
297 296 295 296 296 296 296 296 297 297 297 296 295 295 295 295 296 297 296 298 301 300 300 300 304 308 309 308 306 307 310 315 313 309 309 312 314 312 317 314 315 316 319 325 320 325 328
295 294 294 294 296 296 296 296 296 296 296 295 295 292 294 296 296 298 298 296 298 298 299 302 304 307 308 308 306 306 315 314 312 311 311 313 313 313 317 318 318 320 318 320 323 323 329
295 294 294 296 296 296 296 296 296 296 295 294 294 289 296 297 296 295 298 297 298 298 299 299 302 303 306 307 306 308 314 315 312 312 313 313 315 314 313 313 316 318 318 321 325 328 325
293 294 294 295 295 296 296 296 296 296 295 295 293 295 294 296 296 298 297 298 297 298 298 298 302 304 304 306 306 307 313 311 310 310 312 311 313 312 309 314 318 319 319 318 320 321 323
294 294 295 295 295 295 295 295 296 295 294 294 294 293 289 293 290 292 296 298 298 298 299 300 300 300 300 304 305 306 310 311 310 310 311 309 310 311 311 310 314 314 316 316 316 322 324
294 295 295 294 294 294 294 295 295 294 294 294 294 291 291 288 294 296 295 294 298 298 299 299 301 303 303 306 306 304 309 311 310 311 310 308 309 311 311 311 312 313 314 314 315 316 319
294 294 294 294 294 295 295 295 294 294 294 294 292 294 294 292 297 297 297 301 301 299 303 302 303 304 305 307 307 308 307 308 310 308 309 309 309 310 310 309 311 313 310 313 314 316 317
294 294 295 295 295 295 295 295 294 294 294 293 293 293 297 294 296 297 297 299 299 300 303 303 304 304 306 306 307 306 306 306 307 309 310 309 309 310 307 307 308 311 314 316 317 317 315
293 293 294 294 294 295 295 295 295 295 295 293 293 294 296 294 296 296 297 298 300 302 304 304 304 304 304 306 305 305 305 306 306 307 307 308 308 308 307 307 305 311 314 315 318 318 317
294 293 294 295 295 295 295 295 295 296 295 295 293 294 296 294 296 297 297 299 299 300 302 303 305 304 303 304 304 305 304 304 305 306 308 307 307 307 306 307 306 308 315 316 315 318 315
294 293 294 294 295 295 295 295 295 296 296 295 294 293 293 293 293 296 296 298 298 300 302 302 300 300 302 301 303 305 306 306 306 306 305 306 305 306 307 308 307 312 314 313 313 319 314
293 294 294 294 295 295 295 295 295 296 297 295 295 293 294 294 292 294 295 296 298 298 299 302 298 303 300 300 302 303 305 305 307 305 307 307 307 309 307 307 308 311 317 314 319 318 313
293 293 294 294 294 294 295 295 295 296 296 297 295 294 294 291 293 295 295 295 295 296 294 297 297 299 302 303 303 303 302 304 305 305 308 307 308 308 307 309 309 314 315 314 313 311 310
293 294 294 294 294 295 295 295 296 296 296 297 294 294 294 293 291 295 296 296 295 295 295 297 296 299 301 302 300 303 304 302 306 307 310 311 308 308 308 308 310 310 313 310 306 307 306

GFSGBSN_925_thetae_084.txt.gz
Theta_e
304 305 304 305 305 304 305 305 303 302 302 303 303 303 303 303 303 302 301 299 301 302 303 303 303 303 303 304 304 301 304 303 304 311 314 316 309 306 306 306 308 312 314 313 313 312 311
303 303 304 304 303 304 304 303 303 302 302 303 303 303 303 302 302 302 299 297 298 298 300 303 304 304 304 302 302 301 303 303 303 313 314 314 313 308 308 308 307 308 309 309 310 311 311
303 303 303 303 303 302 302 301 302 302 303 303 303 303 302 302 301 299 298 297 297 300 302 304 305 304 304 302 300 301 302 302 302 309 309 308 308 306 306 306 308 311 312 312 312 311 311
303 302 303 302 301 302 302 302 302 302 302 302 302 302 300 300 298 298 297 296 301 303 307 307 306 304 306 302 302 305 305 307 307 305 306 308 307 307 305 305 308 312 312 314 312 312 312
302 303 303 302 302 301 302 302 302 302 301 300 301 301 300 299 298 297 296 300 303 307 306 305 305 305 306 305 308 308 310 307 306 307 306 308 306 306 305 307 306 309 310 312 313 313 313
304 303 302 301 301 301 303 303 302 301 299 300 301 301 301 299 298 296 297 302 304 308 307 308 307 307 306 307 310 310 306 308 308 309 307 307 304 304 304 305 307 308 312 313 314 312 312
302 301 301 301 301 301 301 302 302 301 300 301 300 300 300 298 296 296 297 301 300 301 300 302 304 309 308 308 308 307 307 306 306 311 311 307 306 306 305 307 308 310 311 310 309 310 312
300 300 299 299 301 301 301 301 301 300 300 300 300 300 299 297 296 297 297 299 298 297 300 300 301 302 303 304 306 306 306 305 311 313 311 313 309 306 305 305 306 307 307 308 309 310 311
299 299 298 299 299 300 300 300 300 300 299 299 299 299 298 297 296 296 297 298 297 298 299 303 304 304 305 305 306 305 305 305 307 313 313 314 314 313 310 310 309 309 311 313 314 314 311
299 298 297 298 298 298 298 299 299 299 299 299 299 298 296 296 296 297 296 296 296 299 304 303 305 305 305 305 307 304 305 305 305 311 313 313 311 314 312 312 310 316 315 316 315 315 315
299 298 297 297 297 297 297 298 298 298 298 298 298 298 296 297 298 297 297 297 297 301 303 299 304 305 305 305 305 305 304 304 306 311 313 312 315 317 317 316 315 316 316 317 316 316 316
297 297 297 297 297 297 297 297 297 297 297 297 298 298 297 296 297 297 297 297 300 303 301 301 304 304 305 307 308 305 304 307 307 313 313 310 311 312 311 313 314 314 315 315 315 317 318
297 296 296 297 297 297 297 297 297 297 297 297 297 296 296 297 296 297 297 297 300 302 299 298 304 303 305 305 309 306 307 311 311 312 313 312 312 312 313 313 313 314 316 315 316 321 319
296 296 296 295 296 296 295 297 297 297 297 297 295 294 293 294 295 295 296 298 299 296 298 301 301 304 309 308 308 309 307 308 309 308 310 311 310 311 312 312 314 315 316 317 321 321 321
295 296 294 296 296 296 296 296 296 297 297 296 294 294 294 295 295 296 293 297 297 300 300 300 300 308 307 308 308 306 306 306 307 308 310 311 312 311 313 312 313 317 319 317 321 319 323
297 298 295 294 295 295 296 296 296 296 296 295 294 295 294 295 296 296 295 296 298 298 298 300 301 307 307 307 308 307 309 311 310 308 308 311 312 312 315 313 313 315 318 324 321 320 323
295 295 294 294 295 296 296 296 296 296 295 294 294 291 293 295 296 298 294 296 296 296 297 299 301 301 304 305 307 308 311 313 311 310 310 311 312 313 316 317 316 318 319 320 320 323 324
294 294 294 294 295 296 296 296 296 296 295 294 292 290 296 297 295 294 291 296 297 297 297 297 300 301 302 304 304 308 311 314 310 311 314 313 313 313 312 311 314 316 316 316 323 322 322
293 293 293 294 295 295 295 294 295 296 295 294 291 291 293 295 287 290 297 297 297 297 297 297 298 299 304 302 303 306 309 311 312 311 313 312 312 310 307 312 316 318 317 317 316 319 322
293 293 294 295 295 295 295 294 295 295 294 294 289 292 288 294 288 292 295 296 296 297 298 298 299 299 300 301 301 304 307 309 310 310 311 308 310 309 308 308 310 310 312 313 316 316 314
293 293 295 295 294 294 294 294 294 295 294 294 291 289 290 291 292 293 296 296 296 297 297 298 299 299 299 303 306 306 307 310 310 310 309 306 309 310 309 309 310 310 310 311 313 313 315
293 294 294 294 294 294 294 294 294 295 294 293 290 293 294 290 293 294 296 296 297 298 300 300 300 299 301 304 305 308 306 307 310 308 309 308 309 309 310 308 308 310 308 306 307 309 312
293 293 294 294 295 295 295 295 294 294 294 294 293 293 294 293 294 292 294 296 298 299 299 300 302 303 304 305 303 305 306 306 307 308 308 308 306 306 305 305 307 306 309 313 312 313 314
293 295 293 293 294 294 295 295 295 295 295 293 292 292 293 292 294 295 296 297 298 299 299 304 302 304 304 303 304 305 304 304 305 306 306 307 307 307 307 305 303 304 313 314 313 313 311
295 293 294 294 294 295 294 294 295 295 295 294 293 293 293 292 295 294 296 297 297 298 299 302 301 301 301 304 303 304 303 303 303 304 307 305 306 306 304 306 304 305 314 311 311 312 313
294 294 294 294 294 294 294 295 295 295 296 295 294 293 293 291 292 294 295 295 296 299 298 300 298 299 300 300 302 304 304 305 304 303 305 305 304 306 306 307 303 302 314 312 313 314 309
294 293 293 294 294 294 295 295 295 295 295 296 294 293 293 292 292 293 294 295 297 297 298 298 296 300 298 299 301 302 304 304 305 305 307 307 306 307 307 308 306 308 312 313 316 314 304
293 293 293 293 294 294 294 294 294 295 295 296 294 293 293 292 290 293 295 294 294 294 295 295 296 296 301 303 304 303 303 304 305 304 306 307 308 307 308 309 308 309 313 314 311 304 301
292 293 293 293 293 294 294 294 295 295 296 297 294 294 293 292 290 293 294 295 295 294 294 295 297 299 300 303 302 302 303 302 304 306 304 309 308 308 307 308 305 302 304 302 301 300 302

GFSGBSN_925_thetae_087.txt.gz
Theta_e
304 304 304 304 305 304 305 304 303 302 302 302 303 303 303 303 303 302 301 298 298 298 300 302 304 305 302 302 300 299 302 303 303 313 312 315 308 307 308 307 309 314 314 314 314 314 314
303 303 303 303 303 303 303 302 303 303 302 304 303 303 303 303 302 301 300 296 295 298 301 303 305 305 304 301 299 301 301 302 303 312 313 315 313 309 308 308 309 309 310 311 311 312 312
303 302 303 302 301 301 301 302 302 302 302 300 300 301 302 302 301 300 296 295 297 301 304 307 306 305 304 303 299 300 300 301 302 303 312 312 313 308 308 308 308 310 310 312 313 314 314
304 302 302 302 301 301 300 300 302 302 301 300 301 301 301 299 298 296 295 295 300 302 307 306 306 305 306 304 303 303 304 305 304 303 304 307 307 307 307 307 308 310 311 312 313 313 313
302 301 302 303 302 301 299 301 302 302 301 301 301 300 300 299 296 296 295 299 301 305 306 306 305 305 306 303 307 309 309 308 307 306 305 306 307 308 306 308 308 308 309 313 313 313 314
303 304 302 301 300 300 301 302 302 301 300 301 300 300 300 299 296 296 296 301 304 306 301 307 306 306 306 308 309 308 306 308 307 306 306 307 307 308 307 308 306 306 309 312 313 314 312
302 302 301 300 300 301 301 301 301 300 300 300 300 299 299 296 296 296 298 299 298 300 297 298 300 301 301 300 303 306 307 306 306 310 307 307 309 309 308 309 307 309 311 311 310 309 309
301 300 299 300 301 301 301 301 300 300 299 299 299 299 296 296 296 296 298 297 296 295 299 299 300 300 300 301 302 303 304 306 309 311 311 311 311 309 308 307 308 308 308 309 310 309 312
300 299 299 299 299 299 299 299 299 299 299 299 298 298 296 296 296 296 297 296 297 296 300 301 302 302 303 303 303 303 303 305 307 311 313 313 313 311 308 308 308 308 310 311 313 314 315
299 299 297 297 298 298 298 298 298 298 298 298 298 298 297 295 296 297 295 297 297 297 303 300 303 304 304 305 306 305 304 306 307 309 313 313 312 314 312 312 311 313 312 313 316 317 315
299 298 297 297 297 297 297 297 297 297 297 297 297 296 297 296 296 296 297 296 297 299 296 299 302 305 305 305 305 306 304 305 307 310 313 312 315 315 315 315 312 316 316 316 315 317 317
298 298 297 297 297 297 296 297 297 297 297 297 297 293 297 297 296 296 295 296 299 300 297 298 301 300 300 303 307 305 304 305 305 312 313 310 311 314 314 314 315 315 314 315 316 316 319
297 296 296 297 297 296 296 297 297 297 297 297 294 293 294 295 295 295 295 297 300 297 298 298 301 300 300 309 309 308 305 304 310 309 312 313 313 312 313 314 314 314 316 319 319 319 317
296 295 296 295 296 295 294 296 296 296 297 296 293 293 293 294 294 295 296 298 294 295 297 300 299 300 300 308 308 309 309 305 309 308 309 311 312 313 313 313 315 315 316 317 317 321 320
295 296 295 295 296 295 295 296 296 296 296 294 293 293 294 294 295 296 295 296 295 300 299 298 299 301 306 305 305 307 307 309 308 309 311 311 313 311 313 313 314 317 318 317 320 319 320
296 296 296 294 294 294 295 295 296 296 294 294 294 293 293 295 296 295 295 295 296 296 296 296 298 302 302 301 299 304 307 310 308 309 309 311 316 313 314 313 313 316 317 320 319 320 321
295 296 294 293 294 295 295 296 296 296 294 293 293 293 294 295 296 296 295 296 296 295 296 297 298 298 298 299 301 303 306 311 312 310 310 311 313 315 316 316 317 318 318 317 320 322 323
293 294 294 293 295 295 295 295 295 295 293 293 291 291 295 294 294 295 296 296 296 296 296 296 297 298 298 299 304 304 305 306 304 309 313 313 313 314 313 311 314 316 316 316 318 321 321
293 293 293 293 295 295 294 294 294 295 294 293 291 292 293 294 291 293 294 295 295 296 296 297 297 297 297 299 300 300 305 306 303 307 314 312 312 309 316 316 316 316 317 313 313 313 318
293 293 293 294 295 295 294 294 294 295 294 293 290 290 290 294 290 294 295 295 296 296 297 297 297 298 298 299 299 301 302 305 303 310 310 310 311 308 307 309 311 312 311 310 314 314 312
293 292 293 294 295 294 294 294 294 294 294 293 290 290 291 291 293 295 293 294 296 297 297 297 298 298 298 299 303 303 305 306 306 309 310 309 311 311 310 309 310 310 310 310 311 310 310
293 293 293 294 295 294 294 294 294 295 294 292 292 292 294 293 293 291 294 295 296 297 298 298 300 298 299 300 302 305 307 307 308 309 310 309 310 310 309 308 307 307 307 307 307 308 309
293 293 293 293 294 294 295 295 294 295 294 294 293 293 293 292 294 293 293 295 297 298 298 298 298 301 301 302 304 305 305 306 307 308 309 309 309 310 308 306 307 305 307 308 309 311 314
293 293 294 294 294 294 294 295 295 295 294 292 292 292 293 292 294 294 295 295 296 297 297 298 301 302 303 303 304 305 305 306 306 306 307 308 307 308 308 306 303 305 305 311 314 312 311
293 293 295 294 294 294 294 294 294 295 295 294 292 292 293 293 294 293 293 295 296 296 298 300 298 299 299 303 305 304 304 304 304 304 307 306 308 308 308 307 305 307 313 311 313 311 307
293 294 294 293 294 293 293 293 294 295 295 295 294 293 293 292 292 294 295 294 295 297 297 298 297 298 299 302 304 304 304 305 304 305 306 306 307 308 307 306 305 303 310 311 313 314 304
294 294 295 294 294 293 293 294 294 294 295 296 295 294 292 293 292 293 294 295 296 296 296 296 296 299 299 303 304 304 304 304 304 304 307 306 305 306 306 306 306 307 308 311 314 311 303
293 294 293 293 293 293 293 294 294 294 294 296 295 294 293 292 291 293 294 295 294 294 295 296 297 298 301 303 304 304 304 305 306 306 306 307 308 308 306 308 307 303 308 310 308 301 300
293 293 292 291 291 292 293 294 294 295 295 296 295 294 292 293 293 292 293 293 293 294 295 296 297 299 301 300 302 304 303 304 304 307 304 309 305 304 309 308 301 299 299 297 298 298 298

GFSGBSN_925_thetae_090.txt.gz
Theta_e
307 305 305 306 305 304 304 303 302 302 303 304 303 303 303 303 303 303 302 299 296 296 299 302 305 306 305 304 303 301 300 303 309 313 312 312 311 311 311 311 313 315 314 314 315 315 315
305 304 304 304 303 303 302 301 303 302 301 299 299 300 302 302 302 301 300 297 295 298 300 304 307 306 307 304 301 302 302 303 304 311 312 312 313 312 311 311 311 313 313 314 314 314 315
305 304 304 302 301 300 300 301 301 301 300 299 300 300 299 298 297 296 296 295 297 299 302 306 307 307 308 305 304 303 303 303 303 305 311 311 313 315 313 314 314 313 314 315 315 315 316
304 304 304 301 301 300 300 300 300 301 301 299 301 300 297 297 296 296 295 296 299 302 306 306 306 307 308 306 305 307 309 308 306 304 304 306 309 312 313 311 311 311 312 313 313 314 315
305 304 303 302 302 301 299 302 302 301 300 300 300 300 298 298 296 296 295 298 302 306 303 307 307 308 307 305 309 311 310 310 309 308 305 305 308 310 309 310 310 310 310 311 312 314 315
303 302 303 302 301 299 300 302 302 300 299 300 300 299 299 298 296 296 297 299 301 305 302 305 307 308 308 307 303 308 305 309 310 309 308 305 308 309 309 309 309 308 308 309 311 312 314
305 304 303 301 300 299 301 301 300 299 299 299 298 298 298 297 296 298 299 300 301 304 299 301 301 301 301 301 301 302 303 307 309 309 308 306 308 310 310 309 309 308 309 310 312 312 310
302 302 301 300 300 300 301 301 300 299 299 299 297 297 297 296 296 297 298 300 299 298 301 301 301 302 301 302 304 306 303 306 308 311 309 308 309 308 309 309 309 309 308 307 308 310 312
301 301 300 300 300 300 300 299 299 298 299 298 296 297 296 295 296 298 298 298 298 298 302 303 303 304 305 304 306 307 305 304 306 309 313 310 311 309 309 310 311 311 310 311 310 311 314
300 300 299 299 298 298 299 298 298 298 298 297 295 295 295 295 298 298 298 298 298 299 305 301 303 307 304 306 308 305 307 307 304 305 310 313 312 313 312 312 310 311 310 311 311 315 317
299 299 298 298 297 297 297 297 298 297 297 295 295 296 294 295 298 298 297 297 298 302 300 300 303 306 303 302 304 305 307 307 308 306 310 312 313 312 313 312 311 311 315 315 316 317 316
299 299 298 298 297 297 297 297 297 297 295 294 295 294 293 297 297 297 297 298 302 305 298 299 300 302 301 300 303 306 307 306 306 307 309 310 313 313 313 312 314 315 317 316 315 315 319
299 298 297 297 297 296 297 297 296 295 294 294 294 293 295 296 297 296 297 301 302 298 297 298 301 300 300 300 304 308 308 308 308 307 310 310 311 314 314 317 315 315 314 318 320 320 316
298 297 297 296 296 296 295 296 296 295 294 293 293 294 294 296 296 295 299 300 297 295 297 300 300 299 299 304 304 308 309 308 308 308 308 312 312 312 314 314 314 315 315 316 315 316 316
297 296 296 296 296 295 296 296 296 294 293 292 293 296 296 297 297 298 299 299 296 298 299 298 298 298 301 304 301 302 304 307 308 308 307 308 309 311 313 312 314 316 319 316 319 318 320
296 296 296 294 294 294 295 295 296 294 293 292 296 296 297 296 297 299 299 296 296 296 296 296 296 298 301 301 300 301 302 309 311 311 311 312 311 313 314 314 316 317 316 320 320 321 320
296 296 296 294 294 294 295 296 295 294 293 293 296 297 297 296 298 298 298 296 297 297 297 297 297 297 297 298 298 299 302 304 304 308 308 313 314 317 316 317 317 318 318 319 320 321 324
295 296 295 293 295 295 295 295 294 293 292 294 296 298 296 295 298 297 297 296 296 296 297 297 298 298 299 300 302 303 305 304 305 304 306 313 314 317 316 316 315 316 316 318 320 323 320
294 294 294 293 295 295 294 294 293 294 293 295 297 296 295 296 297 297 296 296 296 297 297 297 298 298 298 298 299 301 302 304 303 304 310 314 314 316 316 315 315 316 318 316 315 315 319
294 293 293 293 295 295 294 294 293 293 293 295 297 298 296 297 296 296 296 296 297 296 297 298 298 299 299 299 299 300 300 302 302 303 305 311 313 311 312 314 315 316 314 313 315 317 314
294 293 294 294 295 295 295 294 294 293 294 295 296 297 296 297 297 296 296 296 297 298 298 298 300 300 300 301 299 301 304 306 304 306 310 312 313 311 310 310 309 309 309 310 312 311 311
294 292 293 294 295 295 294 294 294 294 294 295 297 296 295 295 295 296 296 296 297 298 298 299 300 300 299 302 301 301 304 305 310 308 308 309 311 310 308 308 308 308 307 308 308 308 310
294 292 293 294 294 292 293 294 294 294 294 296 295 294 295 295 295 296 297 296 296 298 297 298 300 301 301 301 302 302 303 305 306 308 308 309 310 307 308 306 306 306 307 308 308 309 311
294 293 293 292 293 295 295 295 295 295 294 295 295 295 295 296 295 296 295 296 296 297 298 298 300 302 302 302 304 305 307 308 307 308 308 309 308 309 308 307 307 311 309 311 310 312 310
292 293 293 295 292 294 294 294 294 295 295 295 294 295 296 296 296 295 296 296 295 297 299 299 298 298 298 302 308 306 306 306 306 307 308 308 308 309 309 307 305 311 311 310 312 312 305
293 293 293 294 294 294 294 293 294 295 295 295 294 294 295 297 296 295 296 295 297 297 297 297 298 298 299 306 306 305 305 305 305 309 308 308 307 309 307 307 305 310 309 310 312 316 302
293 294 294 294 294 293 293 293 293 294 295 296 295 294 294 297 297 296 297 297 297 296 296 298 298 301 303 306 305 306 305 305 305 304 307 308 307 308 307 308 308 306 307 309 316 310 301
293 293 293 294 294 293 293 293 293 294 294 296 296 295 294 295 297 296 296 297 296 296 298 298 301 301 303 305 306 305 306 306 307 308 308 309 310 310 307 309 311 300 307 309 303 301 300
293 292 293 293 293 292 292 292 293 294 294 295 296 294 293 294 297 295 295 295 295 295 296 298 300 300 301 302 303 305 305 307 306 310 306 310 304 307 305 304 299 297 297 296 296 296 296

GFSGBSN_925_thetae_093.txt.gz
Theta_e
309 309 307 307 305 306 306 304 302 301 303 302 300 298 299 302 302 302 302 300 298 297 298 299 303 305 308 309 308 305 300 303 309 314 315 315 315 314 314 315 315 317 317 317 318 317 318
308 307 307 306 306 305 304 302 302 302 300 298 299 298 298 300 301 299 299 296 296 296 299 300 305 307 310 309 304 304 304 304 305 310 312 314 314 314 314 314 314 313 313 314 314 315 316
306 306 306 305 305 304 303 302 301 300 300 299 300 299 297 296 296 296 296 295 296 298 300 305 306 308 309 309 306 306 306 306 305 305 309 311 313 315 316 316 315 316 316 316 316 315 316
306 306 305 304 303 301 300 300 300 301 301 300 301 299 297 296 296 296 295 296 297 301 305 305 306 309 310 307 306 307 310 310 309 305 305 307 310 314 315 316 315 312 313 313 313 313 314
305 305 305 304 302 301 299 301 302 302 301 300 298 297 298 298 295 296 297 299 300 304 304 306 311 310 311 306 310 309 310 311 310 311 308 305 306 309 310 312 312 313 311 311 312 313 313
304 304 304 304 303 301 299 302 303 302 300 299 297 298 299 297 295 296 300 299 301 306 305 306 308 310 310 308 305 303 304 308 310 312 311 307 307 308 309 311 311 309 309 310 311 311 313
303 304 304 304 302 300 302 302 301 300 299 297 298 299 298 297 296 298 301 303 304 308 303 303 304 304 303 305 306 307 305 303 306 311 312 311 307 309 310 311 310 310 310 310 309 311 313
304 303 304 303 301 300 302 302 300 299 297 297 297 297 296 294 296 299 301 303 301 301 304 304 304 304 304 305 307 309 306 305 306 310 311 311 310 309 310 311 310 310 310 312 310 309 310
305 304 303 302 302 302 302 300 299 298 297 296 296 295 293 294 298 301 301 300 300 301 305 305 305 307 308 307 309 309 309 308 307 306 308 311 311 310 309 310 310 311 312 311 310 310 312
303 302 302 301 300 300 300 299 299 297 296 296 296 294 292 297 300 300 301 299 300 303 308 306 304 308 307 306 307 308 305 309 310 308 306 309 311 311 313 311 311 312 311 310 311 312 312
301 301 299 299 299 299 298 298 298 296 296 296 295 293 293 295 299 301 299 299 300 305 306 302 304 308 306 303 303 305 307 307 308 310 310 306 306 311 313 312 311 312 311 311 312 313 314
300 299 299 298 298 298 298 298 297 295 295 296 295 293 297 299 300 299 298 300 303 311 303 302 302 304 303 303 302 302 305 308 308 308 309 309 307 311 312 314 313 312 313 315 316 316 319
299 299 299 298 297 297 297 298 296 294 294 295 294 293 297 298 300 298 299 303 306 304 301 301 302 302 302 301 300 302 306 307 307 309 310 309 307 313 312 312 313 314 317 319 318 317 315
299 299 298 297 297 296 298 297 295 294 294 293 293 296 296 298 299 299 301 304 302 300 299 301 301 300 300 300 301 303 304 305 307 307 310 311 308 312 313 313 314 314 315 316 316 317 317
299 298 297 297 297 297 297 296 294 294 293 292 296 299 299 299 300 300 303 304 302 300 299 299 298 299 300 303 307 303 303 304 305 310 312 310 310 310 313 312 313 314 317 314 317 319 322
298 297 296 297 297 296 296 296 295 294 293 293 299 299 299 299 300 301 302 300 299 298 298 298 298 298 299 300 300 301 301 306 308 308 307 316 314 312 312 311 312 314 313 317 319 319 317
297 297 297 296 294 296 296 296 294 294 292 293 299 301 299 298 300 301 302 299 298 298 297 298 298 298 298 299 300 301 300 302 307 307 306 310 317 315 313 313 312 313 318 317 317 317 319
296 298 297 295 295 296 296 296 294 293 292 296 299 303 298 298 302 300 300 297 297 298 298 298 299 299 299 300 300 300 302 304 306 304 307 308 317 318 313 313 312 313 315 317 319 320 318
296 296 295 295 296 296 296 294 293 293 294 298 300 300 297 300 301 299 298 297 297 298 298 298 298 299 299 300 300 300 301 303 303 305 308 308 318 321 319 318 317 316 315 316 318 318 321
295 295 295 294 295 295 295 293 292 292 293 297 301 301 299 299 299 299 298 298 298 299 299 299 299 300 300 301 302 301 301 301 303 304 306 306 310 319 318 317 318 318 317 317 317 319 316
295 295 294 294 295 296 295 294 293 291 293 296 301 300 298 300 300 299 298 298 299 299 300 299 300 301 302 303 302 302 303 306 305 306 307 308 317 314 315 314 314 315 315 314 315 314 312
295 294 294 295 295 295 295 294 294 293 294 298 301 300 298 299 298 298 299 298 298 299 299 300 300 301 302 302 301 302 302 304 308 309 308 310 314 311 310 309 309 309 309 309 310 310 309
295 293 294 294 295 295 293 294 294 293 295 297 297 297 299 296 298 299 299 298 298 300 299 299 301 302 303 304 304 304 305 305 306 309 310 311 309 310 309 307 306 307 307 308 308 311 313
295 294 292 294 294 294 294 295 294 293 294 297 297 297 298 298 298 298 298 298 298 298 300 300 301 301 303 302 303 305 305 306 307 308 308 312 309 310 309 308 312 311 310 310 312 312 311
294 295 294 293 293 294 295 295 294 293 294 297 296 297 297 299 298 298 298 298 299 299 301 302 300 300 300 301 304 308 308 308 309 308 307 308 310 308 310 309 308 311 309 310 311 312 306
293 294 294 294 294 293 294 294 294 295 294 297 297 296 298 299 300 298 299 299 299 299 299 300 301 302 301 305 309 309 307 306 306 307 308 308 308 311 309 307 310 311 309 309 311 311 302
293 294 294 294 295 293 294 293 294 295 295 297 297 296 296 299 299 299 300 299 299 299 301 301 302 303 304 308 308 308 306 306 307 307 307 309 309 311 309 310 313 304 307 307 317 307 300
293 293 294 294 294 293 293 293 293 294 295 297 297 296 297 299 299 299 299 299 299 299 301 301 304 304 304 306 306 307 307 306 309 309 309 310 312 312 311 311 314 300 306 307 301 300 300
293 293 293 293 294 293 293 293 293 293 294 295 297 296 295 295 299 297 297 298 298 298 299 300 301 303 304 304 304 306 308 309 308 313 307 310 305 307 305 304 300 297 298 296 297 297 297

GFSGBSN_925_thetae_096.txt.gz
Theta_e
309 309 309 309 308 307 306 307 306 303 302 303 301 299 299 301 302 302 298 296 296 296 296 297 299 302 309 313 312 307 303 302 305 313 315 316 315 314 312 312 313 315 316 316 318 318 318
308 308 308 308 307 307 307 306 305 304 302 299 299 299 298 299 299 296 296 295 295 295 296 298 300 306 309 311 307 306 305 305 305 307 313 313 314 314 314 314 314 314 315 314 315 316 316
308 307 308 307 306 306 306 304 304 303 300 300 299 300 298 298 296 295 295 296 296 297 298 301 304 309 310 310 308 308 307 307 306 305 307 309 312 313 314 315 315 314 314 313 314 314 314
308 307 306 306 306 305 304 303 302 303 303 300 299 299 298 296 296 295 295 298 299 299 302 303 305 310 313 310 308 307 307 309 310 309 306 306 307 310 313 314 314 315 315 315 315 316 316
307 307 305 305 304 302 301 300 302 303 303 301 299 298 297 296 295 295 296 299 300 300 303 303 311 314 312 309 306 311 310 311 311 311 311 309 306 307 311 313 314 314 315 315 314 313 313
307 306 305 303 302 303 301 302 303 303 302 300 298 297 297 296 294 297 300 302 302 301 308 308 310 310 311 309 306 306 305 304 308 308 311 311 308 307 307 310 313 313 312 313 313 312 312
307 305 304 304 303 302 302 300 303 303 300 298 297 296 296 294 294 300 301 305 305 308 308 306 306 311 309 305 305 307 308 308 306 305 308 312 310 308 308 309 309 310 311 312 312 311 312
305 304 303 303 303 303 302 303 302 300 298 297 296 295 293 293 295 301 303 304 302 301 303 304 304 304 304 304 305 308 308 307 305 305 305 309 313 311 309 308 309 311 311 312 312 311 311
304 304 303 304 303 302 302 302 301 299 298 297 295 294 292 293 298 302 303 301 301 303 305 305 307 306 306 306 307 308 308 308 309 308 307 307 309 311 311 310 308 311 312 311 311 311 310
303 305 304 304 303 303 302 301 300 298 297 296 295 293 293 295 300 302 304 301 301 304 307 308 305 306 308 308 306 307 308 307 306 307 309 309 308 306 308 311 310 310 311 311 312 311 311
304 304 303 303 302 301 301 300 299 298 296 295 294 293 294 297 303 303 301 300 301 306 314 306 306 308 307 306 304 304 305 304 302 305 307 308 308 309 307 309 311 311 311 311 312 312 312
304 303 302 301 300 299 298 298 298 297 295 295 294 293 296 301 302 301 300 301 304 312 314 304 303 304 304 304 304 303 302 303 303 305 307 307 307 308 309 307 311 313 311 312 312 313 315
302 300 300 299 298 297 298 298 297 297 294 295 294 294 298 299 302 300 301 304 309 310 303 303 303 303 302 301 301 301 301 301 301 307 308 309 308 310 309 305 312 314 314 318 320 319 319
300 300 299 299 297 297 297 297 296 296 294 293 293 296 298 300 301 301 303 306 306 304 302 302 301 300 300 301 303 305 304 303 304 307 310 312 311 309 310 311 315 316 315 319 320 320 318
299 299 299 297 297 297 298 297 296 294 293 292 294 300 301 301 301 302 305 307 305 302 300 299 299 300 300 301 301 303 303 302 303 309 311 310 310 310 310 312 313 317 318 318 320 317 322
300 299 297 297 297 296 297 296 296 295 293 292 298 301 301 300 300 303 306 305 301 300 299 299 298 299 300 300 300 300 301 302 302 308 306 307 310 311 311 311 313 316 315 317 318 327 326
299 299 297 297 297 297 297 296 296 294 292 292 298 302 301 300 301 305 306 302 299 298 298 298 298 299 299 299 301 302 302 302 307 306 305 305 309 311 314 314 315 313 317 316 317 319 322
299 298 297 297 296 296 296 296 294 294 292 295 302 305 300 300 305 302 303 299 297 298 299 299 298 299 299 300 300 301 301 301 304 305 304 306 314 313 318 314 314 311 315 318 319 319 318
298 298 297 296 296 295 295 296 293 292 293 299 303 302 298 302 306 302 300 299 298 299 299 299 300 300 300 299 301 300 301 301 304 304 305 307 310 315 316 316 314 312 312 315 318 318 323
297 298 296 296 296 296 296 295 292 292 293 296 304 304 301 302 299 300 300 299 299 299 300 301 300 300 302 303 302 303 303 303 305 306 305 306 307 308 313 316 314 314 314 317 319 320 319
297 296 295 295 296 296 295 294 293 291 293 297 303 304 301 303 301 300 299 300 300 300 300 299 301 300 301 302 302 301 304 305 304 305 307 308 311 312 313 313 318 319 318 318 318 317 315
296 295 295 295 296 296 296 294 292 291 294 300 302 302 297 300 300 300 301 300 300 300 300 300 302 301 301 303 303 303 303 304 307 308 309 309 315 314 315 316 316 317 315 316 312 312 311
296 295 295 295 295 296 295 293 292 293 296 299 299 298 300 299 300 301 303 299 300 301 300 300 301 301 302 304 303 303 304 305 306 307 311 311 313 313 310 307 309 311 309 309 314 312 312
295 295 295 295 296 295 294 293 293 293 296 298 298 299 301 301 299 299 299 299 300 300 301 301 301 302 302 302 302 303 304 305 306 309 308 311 312 310 309 310 316 312 311 313 311 307 306
295 295 294 294 294 295 295 294 294 293 294 298 298 298 299 302 299 299 299 300 301 301 303 303 302 302 303 303 305 307 310 310 309 307 307 309 312 312 312 315 314 313 309 311 313 307 303
294 295 295 294 293 293 294 295 293 292 294 297 298 297 299 301 302 300 299 301 300 301 303 304 303 304 303 305 308 312 307 309 311 308 308 307 309 312 311 309 314 307 304 307 309 307 301
294 294 295 294 293 293 293 294 294 294 294 297 298 298 298 300 300 300 300 299 300 300 301 303 303 304 305 306 312 310 308 307 311 309 310 312 311 313 311 314 309 301 304 307 313 305 299
293 294 294 294 294 293 293 294 293 295 295 296 298 298 298 299 299 300 300 300 300 300 301 301 305 304 304 306 305 307 309 309 310 308 309 307 311 310 312 313 310 298 302 303 301 299 298
293 293 294 294 294 292 293 293 293 294 294 295 298 297 297 297 299 297 298 298 299 299 300 301 302 303 303 302 303 305 308 309 311 311 306 307 305 307 303 303 298 296 297 295 295 295 294

GFSGBSN_925_thetae_099.txt.gz
Theta_e
314 313 311 310 309 308 309 308 307 306 304 302 302 300 300 302 302 301 299 296 297 295 295 295 298 302 306 310 313 310 307 303 303 307 312 313 313 313 311 308 308 310 310 312 313 314 314
314 311 311 310 308 308 308 307 307 305 304 302 300 299 300 300 298 295 295 295 295 296 297 297 299 304 309 307 306 306 305 305 305 306 311 313 312 311 312 312 310 311 311 310 311 313 311
314 311 310 309 308 308 307 307 306 304 303 301 299 300 300 300 296 295 295 295 296 298 299 299 304 308 309 308 307 309 307 306 306 306 304 305 306 306 308 311 312 312 312 312 311 310 310
314 311 309 308 308 307 305 306 304 303 302 302 300 300 299 297 295 295 294 295 297 299 299 302 305 309 309 309 309 309 306 307 307 307 307 307 306 304 305 307 310 311 311 312 313 312 312
314 311 309 308 308 305 306 304 301 301 304 304 301 300 298 296 295 294 297 300 300 301 301 302 307 310 315 310 309 306 307 307 306 310 310 310 308 303 303 305 308 310 312 312 312 312 312
313 311 309 309 306 306 304 301 301 303 304 303 301 299 297 295 294 294 300 302 303 303 303 307 308 311 312 310 305 305 306 306 305 304 303 306 308 307 302 302 307 310 312 311 312 312 311
313 311 309 307 306 304 302 302 303 301 303 302 299 297 295 293 293 297 301 303 302 305 306 309 309 309 309 307 303 304 305 307 307 304 301 302 307 310 304 303 305 306 308 307 308 309 310
312 310 308 307 304 303 303 303 301 303 302 300 298 295 293 292 294 300 302 302 301 300 301 302 302 302 303 303 303 303 306 307 306 304 302 302 303 306 309 307 306 306 306 306 307 309 310
311 309 307 305 304 303 303 303 301 300 300 298 296 294 292 292 297 301 302 301 301 303 302 303 304 305 306 304 303 305 307 307 307 306 307 306 305 307 307 309 310 309 307 306 307 309 308
310 308 305 305 304 304 303 303 302 300 299 297 294 292 293 294 302 302 302 300 301 304 305 307 306 306 308 307 306 306 306 305 306 305 305 305 307 307 307 307 306 305 309 308 307 309 310
309 306 304 303 304 303 302 303 301 300 298 295 293 293 294 297 298 302 300 300 301 305 315 308 307 307 307 305 305 304 303 302 301 301 301 301 302 304 306 306 307 308 307 311 309 309 310
306 305 304 305 303 303 302 301 299 297 298 295 294 293 295 300 301 300 300 300 303 311 315 303 306 306 303 303 302 301 301 301 301 300 300 300 303 305 307 307 306 306 308 312 313 311 312
304 305 305 303 302 301 300 298 297 298 297 294 294 294 296 299 301 301 300 302 309 313 304 302 301 300 300 300 301 301 303 302 301 301 303 305 306 306 307 307 308 309 309 315 317 317 315
305 304 302 300 299 298 297 298 297 297 293 293 293 295 299 301 298 301 302 305 307 305 301 300 299 300 300 300 301 301 301 302 301 306 308 308 308 306 307 307 311 309 310 317 317 318 316
302 300 299 298 298 297 298 298 297 296 294 293 294 299 300 301 299 302 303 307 304 300 299 298 298 299 299 299 299 299 300 299 302 307 307 307 304 304 304 309 311 313 315 310 318 319 322
300 299 299 298 297 297 298 297 295 294 293 293 298 301 301 297 300 303 305 306 301 299 298 297 297 298 298 298 299 300 302 302 303 306 305 307 306 304 305 309 313 314 314 317 319 322 323
299 298 297 297 296 298 297 296 296 295 293 293 297 301 301 299 302 303 303 304 299 298 298 297 298 298 298 299 299 300 300 301 302 305 304 303 306 306 308 312 314 315 315 316 318 318 325
299 298 298 297 297 297 296 296 296 294 292 294 299 302 300 301 303 303 302 299 297 298 299 299 298 299 300 300 300 300 301 300 301 303 303 306 308 308 308 308 312 314 314 316 317 319 319
299 298 298 297 297 296 296 296 294 293 294 298 301 299 298 302 303 301 300 299 298 299 299 299 301 301 300 301 301 302 303 303 304 304 303 305 307 305 307 313 313 315 314 315 318 317 321
297 297 297 296 297 296 295 296 292 293 294 297 301 301 299 300 298 300 300 301 299 300 300 300 299 299 301 302 302 303 303 303 304 304 305 305 307 305 306 309 310 313 314 316 318 319 322
298 297 296 296 296 296 296 294 292 291 294 298 300 302 300 302 299 298 299 300 300 300 300 299 300 301 301 301 301 301 302 302 303 304 305 306 309 308 307 307 309 310 313 318 320 317 320
297 297 296 297 295 297 296 294 292 291 295 299 298 301 295 299 299 297 300 301 300 300 300 300 301 300 300 301 302 304 303 304 305 306 308 307 310 313 315 314 315 317 317 314 312 312 312
296 295 295 296 295 296 295 292 291 293 298 300 299 298 298 299 298 299 301 301 299 299 300 300 300 302 301 302 302 302 302 302 303 304 305 310 311 314 316 314 314 317 313 309 306 305 307
296 295 295 295 296 296 293 293 293 295 297 298 298 298 297 299 297 300 299 299 300 301 295 300 302 302 302 303 303 304 303 303 303 305 306 310 312 313 312 311 315 310 307 306 304 301 301
295 295 296 296 296 294 293 293 293 294 296 298 298 298 297 298 300 300 299 301 301 301 299 301 301 302 301 303 305 307 309 309 309 309 309 309 311 313 313 316 312 307 303 303 309 302 299
294 295 296 295 294 293 293 294 294 293 295 298 298 298 297 295 300 300 299 300 298 297 300 302 300 302 302 304 307 308 309 311 309 309 308 310 310 311 311 313 312 304 299 301 302 300 297
294 295 295 294 293 293 293 294 292 293 294 297 298 297 298 295 298 299 297 297 299 298 298 300 299 302 302 303 308 309 310 309 311 312 308 307 308 308 310 310 306 298 298 300 298 301 296
294 294 295 294 293 294 293 293 293 294 295 296 297 298 297 297 296 299 300 299 298 297 296 298 300 301 299 302 303 305 309 309 310 306 307 305 307 305 306 305 304 295 297 298 299 296 294
293 294 294 294 294 293 292 292 294 295 294 296 298 298 296 295 295 296 296 296 298 298 297 297 303 301 299 299 300 302 307 307 308 307 304 304 306 302 302 300 296 294 293 293 292 292 292

GFSGBSN_925_thetae_102.txt.gz
Theta_e
319 317 315 314 312 311 309 309 308 308 306 305 303 301 301 299 300 298 296 296 295 295 296 298 300 301 304 309 310 305 307 306 303 303 309 311 311 312 312 309 306 306 308 308 309 311 312
322 318 316 314 313 311 309 309 309 307 306 305 302 301 299 299 298 297 295 295 295 295 296 299 300 303 308 305 302 307 306 304 305 306 310 311 313 310 310 309 309 309 309 309 308 307 308
323 322 317 315 313 311 309 307 307 307 306 303 302 300 300 299 297 295 295 295 295 295 297 299 303 307 309 305 306 306 307 305 306 306 304 305 304 304 303 304 307 308 308 309 310 309 309
325 321 318 315 313 311 308 307 307 305 304 302 301 300 301 298 296 295 295 294 296 299 299 300 304 309 307 302 307 310 308 306 306 306 306 307 307 304 303 303 304 306 308 309 311 310 310
325 320 317 314 312 311 308 308 305 305 302 301 302 301 301 297 295 294 293 298 301 301 302 301 306 309 311 311 310 310 309 306 305 305 305 305 307 305 304 302 301 306 306 307 308 310 310
324 320 317 314 312 310 308 307 305 303 303 302 303 302 300 296 294 293 296 301 303 303 302 306 307 309 311 309 304 304 305 305 305 305 303 303 303 307 300 300 302 305 308 306 308 308 309
324 320 317 314 311 309 308 306 305 301 301 302 303 301 298 294 293 294 299 303 299 302 305 308 309 310 308 306 304 303 303 305 305 303 302 301 299 301 306 302 304 303 302 302 303 304 306
323 321 317 313 310 309 308 306 302 301 301 303 302 299 296 293 292 298 300 300 300 300 300 301 301 305 306 304 304 303 304 304 305 304 303 301 301 301 304 307 305 304 304 304 304 305 305
321 321 315 312 310 309 306 304 302 301 302 303 300 297 293 292 294 300 301 301 301 302 300 301 302 303 303 303 303 303 304 306 306 305 306 305 305 306 306 305 305 306 307 307 307 307 306
318 318 315 311 309 307 305 304 302 301 302 300 298 294 293 294 300 301 301 300 300 304 306 306 306 306 307 306 305 305 302 304 301 301 302 303 304 305 303 303 304 305 305 306 306 305 308
319 318 312 310 307 305 304 303 303 302 300 298 295 293 293 297 298 300 300 299 300 303 302 308 308 307 307 304 302 303 301 300 300 299 300 300 299 298 300 300 301 302 306 306 306 306 312
318 313 310 308 305 304 303 304 302 301 299 296 293 293 295 300 300 301 300 300 303 310 305 304 303 300 300 300 300 300 300 301 300 300 299 299 299 298 300 304 306 306 307 307 309 313 313
315 311 308 306 304 303 303 302 301 299 297 293 294 293 296 299 300 300 300 302 309 310 304 301 299 299 300 299 300 299 299 298 300 300 300 303 304 303 304 305 306 307 307 310 311 314 313
311 309 306 305 304 303 302 301 299 297 294 293 293 295 298 300 298 301 302 304 307 304 300 299 298 299 299 298 299 298 299 299 299 302 305 306 304 304 303 303 303 303 311 311 312 314 315
308 306 305 304 302 301 300 298 297 297 296 293 293 297 300 301 299 302 302 303 302 300 298 297 298 298 298 298 298 298 299 299 301 305 306 306 305 303 303 303 309 311 312 310 312 312 315
306 304 301 300 299 299 298 298 296 296 294 293 298 300 301 298 299 303 303 307 298 298 298 297 297 298 298 297 298 299 300 300 300 302 304 305 304 303 303 304 307 312 312 311 313 314 316
300 300 299 299 298 297 297 297 296 295 293 295 299 300 300 299 302 302 302 304 298 298 298 297 297 298 298 298 298 298 299 299 300 302 303 303 304 303 304 308 311 314 315 314 314 317 316
299 298 298 297 297 298 297 296 296 296 293 295 299 301 300 299 301 302 302 299 298 298 298 298 298 299 300 299 300 300 300 300 301 302 301 305 304 305 305 304 305 312 314 314 313 314 318
298 297 297 298 298 297 296 296 296 294 294 298 300 298 298 301 299 299 300 299 299 300 300 300 300 300 299 299 301 302 302 303 303 303 302 304 303 305 304 311 311 314 315 315 316 316 320
298 298 298 298 297 296 297 296 295 293 296 299 300 297 297 298 296 299 300 299 300 300 300 299 299 299 301 301 301 300 301 301 303 302 304 305 304 305 306 306 307 309 311 313 316 318 316
298 298 297 297 296 296 296 295 293 293 296 299 295 298 299 299 298 298 298 299 300 299 300 299 299 301 300 300 300 300 302 300 301 303 305 305 309 308 306 306 306 306 313 314 316 315 314
297 296 297 296 296 296 295 293 291 293 297 299 296 297 297 298 296 295 300 300 299 299 299 300 300 300 300 300 300 300 302 301 302 305 307 304 308 309 309 309 308 311 312 308 308 309 309
296 295 296 295 297 296 294 292 291 295 299 298 298 297 297 299 298 298 299 300 299 297 299 300 299 301 302 302 301 301 301 301 302 302 302 304 308 312 315 313 314 310 307 304 303 302 302
296 296 296 297 297 296 293 291 294 298 298 298 297 296 296 297 296 299 302 301 301 299 292 300 300 302 302 302 303 303 302 303 303 303 303 306 309 313 314 313 309 306 303 301 300 299 298
296 296 296 297 297 295 294 293 296 297 297 297 297 296 295 297 299 300 300 300 299 298 297 296 301 300 300 303 305 305 308 308 308 305 308 307 309 312 315 312 309 305 300 299 304 298 296
295 295 296 296 294 294 294 293 295 296 298 297 298 298 296 296 298 299 298 298 297 295 297 299 299 300 301 303 304 306 311 311 310 310 306 307 310 311 313 310 309 301 296 297 300 297 295
295 296 296 294 293 294 294 293 293 295 298 297 297 298 296 292 295 297 297 297 297 296 296 297 297 300 298 299 301 305 310 308 308 310 306 305 307 306 308 307 304 295 296 299 299 297 294
295 295 294 293 293 293 294 292 293 294 295 297 297 297 296 288 293 297 299 297 295 295 294 296 297 298 298 299 301 303 307 308 306 305 306 304 305 303 303 303 303 293 294 298 296 294 292
294 294 294 293 294 293 292 293 294 295 296 297 297 296 296 292 293 296 296 297 296 297 295 296 300 298 296 298 299 301 304 304 305 306 303 302 302 300 299 297 294 292 291 291 292 291 291

GFSGBSN_925_thetae_105.txt.gz
Theta_e
322 320 319 319 315 315 314 312 309 307 307 308 305 303 302 300 300 298 297 295 294 296 295 296 299 300 302 306 307 301 307 307 304 303 307 308 310 310 312 310 308 307 306 306 306 307 308
324 323 321 320 317 316 314 313 310 307 307 308 305 304 301 300 300 299 297 295 294 294 295 297 300 303 306 303 300 306 307 304 304 306 309 310 312 311 305 305 305 308 307 306 308 307 306
325 324 324 322 319 317 315 313 311 308 308 307 305 304 301 300 300 298 296 295 294 294 297 299 300 306 308 303 302 307 305 306 305 305 303 303 304 304 303 302 304 304 305 305 308 308 308
326 324 325 324 323 317 315 313 311 309 308 307 305 302 301 300 300 297 295 294 294 296 299 300 302 308 306 301 307 309 306 308 306 305 304 305 304 303 303 302 302 303 303 306 308 306 309
325 325 325 324 322 318 316 314 312 309 307 306 304 302 302 301 300 296 294 293 298 300 302 301 305 307 307 307 311 308 309 307 305 305 305 304 305 304 304 303 303 302 302 304 304 306 307
324 323 324 323 320 317 315 314 312 308 307 305 303 303 302 301 298 294 293 299 303 303 304 303 306 307 306 307 305 303 305 304 304 304 304 302 302 305 300 304 305 301 304 302 303 304 302
319 324 324 323 321 318 315 313 311 308 306 304 303 303 303 301 295 293 297 302 297 300 305 306 307 306 307 305 304 303 304 303 304 303 303 302 299 300 302 304 306 306 305 305 306 305 303
317 318 321 322 321 318 315 312 310 308 306 303 301 303 302 298 293 293 298 299 300 299 298 299 301 305 306 306 305 304 303 302 305 304 302 301 301 300 301 303 305 305 305 305 304 304 305
316 317 316 320 321 317 313 311 309 307 305 302 303 303 300 294 293 298 300 300 302 302 297 299 301 301 302 301 302 302 303 303 305 305 304 304 305 304 302 303 303 304 305 305 305 304 304
317 316 318 319 320 318 313 310 308 306 303 303 303 302 297 292 297 301 301 300 300 303 303 303 304 305 305 304 304 303 301 301 300 300 300 299 301 300 299 299 300 299 301 302 302 304 305
317 317 318 318 319 315 311 309 305 304 303 303 302 298 293 295 300 300 300 299 299 303 298 307 306 302 301 302 301 302 300 300 299 299 299 299 298 298 298 298 298 299 300 303 306 306 305
317 315 316 316 317 312 310 306 305 304 302 301 298 294 293 297 299 300 300 300 303 306 300 303 300 300 301 300 300 299 299 299 300 300 299 298 299 299 298 301 302 304 304 304 304 306 308
317 316 315 317 313 311 307 305 304 302 301 299 295 293 296 299 300 300 299 302 307 310 303 299 299 299 300 299 299 298 299 299 297 299 300 301 302 302 303 304 303 304 306 306 305 307 307
316 315 316 314 311 307 305 304 303 301 300 296 293 294 296 299 299 299 302 301 306 303 300 298 298 299 299 298 298 298 299 297 299 302 303 304 302 303 302 302 302 301 304 307 307 309 309
315 315 315 311 308 305 304 303 301 299 297 293 293 295 298 300 299 301 300 300 301 299 298 298 298 298 298 297 297 297 298 298 299 301 302 304 304 301 300 301 302 307 302 303 308 308 310
315 315 311 307 306 304 303 301 299 298 293 293 296 299 300 300 300 302 300 305 297 298 298 298 298 298 297 297 297 298 298 298 299 298 302 302 302 301 300 302 301 306 305 308 310 313 312
314 311 307 305 303 302 300 299 297 294 293 295 300 300 300 298 302 300 301 303 298 298 298 298 297 297 297 299 298 298 299 298 298 300 301 302 303 302 302 302 302 310 312 311 311 312 312
309 306 303 302 300 299 299 298 295 293 294 297 299 301 299 300 301 301 302 302 298 298 298 299 298 300 299 299 299 299 300 299 299 301 301 302 301 304 302 301 302 303 306 314 315 314 314
302 301 300 299 299 298 298 296 295 294 296 298 298 298 298 300 300 301 301 299 300 300 299 299 300 299 298 299 300 301 301 302 301 301 302 303 302 301 302 309 308 311 311 311 316 316 315
299 299 299 298 297 296 296 296 297 295 296 299 297 297 297 298 296 299 299 299 300 299 299 299 299 299 300 300 300 299 301 299 301 301 303 302 301 302 302 303 305 308 308 309 313 317 312
299 298 298 297 297 297 297 297 296 294 297 299 297 297 298 299 298 298 298 299 300 299 299 298 299 300 300 300 299 299 299 298 299 301 303 305 306 306 304 304 305 308 310 311 312 314 310
298 298 297 297 297 297 296 296 294 295 298 298 299 297 297 297 297 298 299 299 299 299 299 299 299 299 299 300 299 299 299 300 300 301 305 305 303 306 306 306 309 305 303 303 306 307 307
297 296 296 296 296 296 295 295 293 296 298 297 297 296 297 297 296 298 298 300 299 297 299 299 299 299 301 301 301 300 300 301 302 302 303 304 304 308 312 309 306 300 302 301 300 299 301
297 296 295 296 296 295 295 292 296 298 299 297 297 296 295 297 297 299 302 300 299 298 294 299 299 301 301 300 300 301 301 302 302 303 303 304 305 307 313 311 306 304 301 299 298 297 296
296 296 297 296 296 295 293 297 298 297 297 298 297 296 296 297 298 299 301 300 298 297 296 294 299 299 297 300 304 304 304 306 306 305 307 305 306 312 313 308 306 306 298 298 301 297 294
297 297 297 296 296 294 295 296 297 297 297 297 297 298 295 297 298 299 297 297 296 295 297 298 298 297 300 302 304 306 309 308 309 309 305 305 306 311 310 310 308 300 294 295 298 295 293
296 296 296 296 295 293 294 295 297 297 296 297 296 297 295 295 295 297 296 297 296 295 296 296 297 299 297 298 304 305 308 307 305 305 307 306 306 305 307 306 302 293 293 298 299 297 291
296 296 293 294 295 294 293 294 296 296 296 296 296 296 295 291 294 297 298 295 294 294 293 295 295 296 297 299 302 302 303 305 305 303 304 302 303 301 303 303 304 291 293 297 294 292 289
296 294 293 293 294 293 293 294 294 297 296 296 296 295 295 292 293 296 296 295 295 295 294 296 296 297 294 298 300 301 301 300 300 300 300 301 299 298 297 295 292 291 291 291 291 290 288

GFSGBSN_925_thetae_108.txt.gz
Theta_e
326 325 324 322 320 320 318 315 315 315 311 307 306 307 306 303 302 301 300 299 298 299 295 295 298 300 300 301 301 301 307 308 306 305 306 306 308 309 310 309 307 306 307 306 305 305 305
327 326 325 324 322 321 319 316 315 315 313 309 307 308 306 304 301 300 299 297 296 295 294 296 299 302 305 298 299 302 306 306 304 306 308 309 311 309 304 303 303 305 303 303 303 305 306
327 327 326 325 324 323 322 319 317 315 313 311 307 308 305 304 301 300 299 297 294 294 294 297 300 306 307 300 302 306 305 305 304 305 304 304 304 303 302 303 302 303 302 302 304 306 307
326 327 327 326 325 324 323 321 318 316 314 312 309 308 305 303 301 300 299 295 294 294 297 299 301 307 304 301 301 304 305 305 306 306 304 304 304 303 303 302 303 302 302 303 306 303 304
323 325 326 326 325 324 324 323 320 317 315 312 310 308 305 303 301 300 298 294 296 301 302 302 305 306 303 304 308 308 310 307 306 304 304 304 303 303 303 303 303 301 300 302 303 302 302
316 319 324 324 324 323 323 321 320 317 315 312 310 307 304 302 301 300 295 296 303 304 303 305 307 305 302 305 305 303 308 304 303 303 304 301 300 302 300 303 303 300 300 302 304 303 303
317 315 318 319 321 321 321 320 318 317 314 312 309 307 304 303 301 298 293 301 296 297 305 302 303 302 305 307 305 302 304 302 303 303 303 301 299 302 303 303 304 302 304 305 305 304 304
318 317 317 315 320 320 319 320 318 316 313 311 309 306 303 301 301 294 296 298 299 299 297 298 304 305 305 306 306 304 302 301 303 302 301 301 300 300 299 301 303 302 303 303 303 303 303
314 317 316 315 315 316 319 320 317 317 312 310 308 305 303 302 298 293 299 300 302 301 295 296 300 300 299 302 302 300 301 301 304 303 302 303 304 302 301 302 302 302 303 303 303 301 300
314 315 317 316 315 316 316 319 318 314 311 308 306 303 302 299 293 300 300 300 300 302 299 300 302 303 302 302 303 301 300 301 300 301 300 299 300 300 299 298 299 297 299 300 299 299 299
309 314 316 317 316 317 316 318 317 312 309 307 305 303 301 295 299 300 300 299 300 302 298 304 303 301 301 303 300 299 299 300 300 300 299 300 299 299 299 299 298 298 298 298 299 303 303
306 309 314 317 317 316 316 318 314 310 307 306 304 302 299 294 297 300 300 299 302 303 299 302 299 299 300 299 298 298 298 298 299 299 298 299 299 299 298 299 300 301 302 303 302 302 303
306 306 312 316 317 315 315 315 311 308 306 304 303 301 295 296 299 300 300 302 304 306 302 299 298 299 298 298 298 298 298 297 296 298 300 301 301 301 301 302 301 301 301 303 302 308 304
306 308 309 315 316 315 315 314 309 305 304 302 299 296 294 299 300 300 301 303 305 302 299 298 297 298 297 297 297 298 298 297 301 299 300 302 301 302 300 301 301 300 301 304 305 306 305
307 308 308 314 316 315 314 309 305 303 302 299 297 295 296 299 299 301 299 302 297 299 298 298 298 298 298 297 297 297 298 297 298 298 298 300 303 299 299 299 300 302 302 301 302 302 304
307 309 310 314 315 313 309 305 303 302 299 296 294 297 299 300 300 301 300 303 297 298 297 297 299 298 297 296 297 298 297 298 298 298 299 302 302 299 299 300 300 302 304 305 307 307 310
312 312 312 314 314 309 305 304 302 299 296 293 298 299 300 299 301 298 297 302 297 297 298 298 297 297 297 298 298 298 299 298 298 299 301 301 302 300 301 301 299 305 306 305 305 309 310
314 312 314 313 310 305 303 301 300 299 295 298 299 297 299 300 301 299 300 302 298 298 299 299 299 299 299 299 299 299 300 298 299 300 300 300 300 303 301 300 301 301 303 305 306 314 312
312 313 313 308 305 303 301 299 297 293 295 299 299 298 298 300 302 301 301 299 300 300 299 299 300 299 298 298 299 300 300 300 300 300 301 302 302 300 301 306 308 308 309 311 309 309 316
313 311 306 304 302 300 299 297 295 294 299 298 297 297 298 299 296 300 300 301 300 299 299 298 298 299 299 300 299 299 301 299 300 299 302 301 300 300 300 300 301 304 306 308 309 310 309
305 303 301 300 299 298 296 295 294 297 299 299 296 296 299 301 296 299 299 300 300 299 299 297 298 300 299 300 299 299 298 296 297 300 301 300 303 302 303 303 303 306 305 303 312 312 310
300 300 299 298 298 297 296 296 297 298 297 298 298 298 297 297 298 299 300 299 299 299 299 298 299 299 298 299 299 298 299 298 298 299 303 306 303 304 303 304 307 303 302 300 300 304 301
299 298 298 297 296 296 296 296 297 296 298 296 296 296 297 296 297 298 298 299 299 297 298 298 298 299 300 300 299 298 299 300 301 303 303 303 304 305 308 305 304 303 301 300 298 297 300
297 297 297 297 297 297 296 296 296 297 299 297 296 295 296 297 297 299 300 299 299 297 293 299 298 299 300 298 298 299 299 299 300 301 302 304 304 305 308 307 306 301 300 297 296 295 295
297 296 296 296 296 296 295 294 296 298 298 297 297 296 295 295 297 300 300 299 298 298 296 294 298 298 297 300 303 303 304 305 305 305 306 303 305 307 312 307 302 303 297 297 300 295 293
296 296 296 296 295 296 298 298 298 298 298 298 297 297 295 298 298 298 298 297 296 295 296 297 297 296 297 299 302 302 305 306 309 308 305 306 305 308 310 308 306 298 294 294 296 295 291
296 296 296 296 296 297 297 297 297 297 297 298 296 296 296 295 296 296 296 296 295 295 295 295 296 297 296 296 299 303 306 305 305 304 305 305 306 306 307 305 300 293 292 295 300 295 290
295 295 295 295 295 296 297 297 296 296 296 297 295 295 296 292 294 297 296 295 294 293 292 294 294 294 296 298 301 301 302 301 304 302 302 301 302 301 302 304 303 291 294 298 293 289 287
294 295 294 294 294 295 296 296 296 295 295 295 295 295 296 293 294 296 295 295 294 293 293 296 294 296 292 297 300 299 301 301 298 298 299 301 297 297 296 295 291 290 291 290 290 288 286

GFSGBSN_925_thetae_111.txt.gz
Theta_e
327 326 326 326 325 324 322 321 320 318 318 316 315 309 307 307 306 303 301 299 298 297 295 294 296 299 300 299 300 301 307 309 307 306 305 307 308 309 310 309 308 308 309 307 307 305 306
327 327 327 327 326 325 324 323 321 320 319 317 315 312 307 307 306 303 301 299 298 295 294 294 298 300 303 299 299 300 304 308 304 305 307 309 310 309 306 305 306 306 305 304 304 306 306
322 326 326 326 326 326 325 324 323 322 320 318 316 314 309 308 306 303 300 299 298 294 293 294 298 304 306 299 301 304 306 305 303 305 305 306 305 304 303 304 303 303 304 304 305 307 307
317 316 319 325 326 326 326 325 324 323 321 319 317 314 310 308 306 303 300 300 296 294 296 299 300 305 302 300 301 301 304 305 305 306 304 304 303 304 305 304 306 306 303 305 305 305 304
317 317 316 319 323 323 325 325 324 323 323 320 317 314 311 308 306 302 300 299 294 301 302 303 304 304 302 302 304 307 306 305 305 305 304 303 303 304 303 306 307 304 304 303 304 305 305
311 316 317 316 317 323 324 324 323 323 321 321 318 315 311 309 305 302 300 295 302 304 304 305 306 304 301 304 305 302 309 306 303 303 304 303 304 306 304 307 304 303 303 303 304 306 306
314 312 313 317 317 317 322 323 322 320 320 318 317 312 310 307 304 301 299 299 298 299 305 302 301 300 303 306 305 302 303 302 303 304 306 301 304 306 306 306 306 305 304 305 306 305 305
315 313 313 315 317 316 314 318 320 319 319 318 315 311 309 307 303 301 295 300 298 299 300 299 304 304 305 306 306 305 303 303 304 304 303 303 304 304 301 301 303 303 304 304 304 304 303
312 315 314 313 315 316 316 315 317 319 318 318 314 311 307 305 302 298 294 299 301 301 297 297 299 300 300 303 304 303 301 301 303 303 303 304 304 303 302 302 303 303 303 303 301 301 300
306 307 308 312 314 315 316 316 315 315 318 316 312 308 306 303 301 296 300 300 301 301 299 299 300 302 301 301 301 300 299 302 301 304 303 303 300 301 300 299 300 300 300 300 300 300 300
305 305 305 306 310 314 315 316 315 315 317 314 310 307 305 304 297 300 300 300 300 301 302 303 303 301 301 302 301 300 298 300 300 300 301 301 300 301 301 301 299 301 300 301 302 302 303
306 305 304 305 306 312 315 316 315 316 316 312 308 306 303 298 300 300 300 299 301 305 300 303 299 300 300 299 298 298 299 299 299 300 299 300 300 301 301 300 300 302 303 303 304 303 302
306 305 305 305 305 306 312 316 316 316 313 309 305 304 301 296 298 300 300 302 303 302 301 300 299 299 298 298 298 298 298 298 299 300 300 301 300 301 302 303 301 301 302 304 305 306 303
304 305 305 305 305 306 311 313 316 315 309 305 304 302 298 297 299 300 302 304 299 302 301 298 298 298 298 297 297 298 297 298 301 299 300 300 300 302 301 302 301 300 301 302 303 304 304
304 305 305 305 305 308 307 314 315 311 305 303 301 297 298 300 300 300 303 302 300 300 299 298 298 299 298 297 297 298 298 298 300 298 299 300 301 301 300 299 299 301 302 301 302 302 303
303 304 305 306 306 308 308 314 312 306 303 300 296 296 295 297 300 300 302 300 299 298 297 298 300 298 299 297 298 298 297 298 299 299 298 301 301 300 299 301 300 301 302 306 304 308 308
302 304 305 306 307 308 308 312 307 303 301 298 297 297 297 299 300 300 301 300 297 297 298 298 298 297 297 298 298 299 298 298 298 301 301 301 300 299 300 301 300 303 303 303 304 305 311
302 304 305 305 307 308 309 308 303 302 301 300 299 300 298 299 302 300 301 302 298 298 299 299 299 298 299 299 299 299 299 299 299 300 300 301 303 303 301 301 303 301 302 305 306 308 309
303 304 304 305 306 308 309 305 301 300 299 299 298 298 297 298 301 301 301 300 299 299 300 300 300 300 298 299 299 300 300 300 300 300 301 303 303 301 302 307 306 305 305 307 310 307 307
302 303 305 308 311 309 306 304 300 299 300 300 298 299 299 300 298 300 301 300 300 299 299 298 299 299 300 299 299 299 300 300 300 300 302 302 302 301 299 298 299 303 304 305 308 310 308
303 305 308 312 310 306 303 300 298 298 298 298 298 299 299 300 299 300 300 301 300 300 299 298 299 300 300 299 300 300 299 299 297 299 301 302 302 302 302 302 302 305 304 303 301 306 310
308 312 312 309 305 303 301 299 298 299 298 299 298 299 298 300 299 300 301 301 300 299 299 298 299 299 299 300 299 299 299 299 300 300 303 303 304 302 301 303 304 302 301 302 299 302 300
311 307 305 303 302 300 299 298 298 298 299 297 295 296 299 300 299 300 300 300 300 299 298 299 300 300 300 300 299 299 299 300 301 302 305 304 304 304 306 304 303 305 301 300 298 298 301
302 301 300 299 299 298 297 298 298 299 299 297 296 296 298 298 299 299 299 299 299 298 298 299 299 301 300 299 299 299 300 300 301 301 302 305 304 305 307 306 309 302 299 297 296 295 296
299 298 298 298 297 297 297 298 298 298 298 297 297 296 296 298 299 300 300 299 299 298 298 298 298 299 298 301 303 304 304 303 303 302 304 302 305 305 310 307 303 302 298 299 299 296 293
296 296 296 296 296 296 297 298 297 298 297 298 296 296 296 299 299 299 298 299 299 298 297 298 296 296 298 301 302 305 306 305 308 309 306 305 304 305 307 308 307 300 294 294 296 299 292
296 296 296 297 297 297 296 297 298 297 298 298 296 297 296 297 296 296 298 298 296 296 297 297 298 299 297 300 303 305 306 305 305 304 305 305 305 307 309 305 300 294 292 295 303 299 290
297 298 298 298 298 297 297 297 297 297 298 298 294 296 297 296 296 297 296 296 295 295 297 296 298 297 298 301 303 303 302 303 304 301 303 302 302 302 304 304 304 291 295 299 293 290 287
296 296 297 297 297 296 296 296 296 296 297 298 295 296 297 295 296 294 294 294 293 293 296 296 296 297 298 300 300 301 302 302 301 303 298 302 298 298 296 296 291 290 292 291 290 288 286

GFSGBSN_925_thetae_114.txt.gz
Theta_e
326 328 328 327 326 326 325 324 323 322 321 321 319 317 315 309 307 307 305 302 300 299 295 294 294 297 304 304 303 303 306 309 312 308 307 308 308 308 308 308 309 310 309 310 312 311 310
319 323 326 327 327 326 326 325 325 324 323 321 320 317 316 313 308 308 305 302 300 299 295 294 295 299 304 304 301 302 305 311 309 308 307 308 309 309 309 309 309 310 311 310 309 309 309
318 318 319 324 326 327 326 326 326 325 324 323 321 320 316 314 310 308 306 302 300 299 294 294 296 305 305 304 303 304 304 307 307 307 309 309 309 309 308 308 308 307 307 308 308 308 308
309 314 317 316 317 322 324 326 326 325 324 324 322 320 317 315 311 308 305 302 300 295 296 299 300 306 304 302 303 303 304 306 307 306 306 306 306 309 309 309 309 309 309 308 309 308 308
311 312 310 316 317 316 319 322 324 324 323 324 322 321 317 315 311 308 304 301 298 298 302 302 306 307 304 303 306 307 305 305 307 307 306 305 307 309 309 310 310 309 307 307 307 308 308
311 313 314 312 316 317 316 317 321 321 322 323 322 319 317 314 310 307 305 300 299 304 306 306 307 306 305 304 308 305 310 307 307 307 307 307 308 309 310 310 308 308 307 307 307 307 308
309 314 315 314 312 314 317 317 315 321 322 322 320 319 315 312 309 307 303 299 304 306 306 308 305 304 304 309 307 305 306 305 307 308 308 308 308 309 309 309 308 307 307 307 307 308 307
306 311 315 315 313 312 313 317 316 317 320 319 318 317 313 311 309 306 300 301 300 301 306 304 304 305 304 307 307 306 305 306 307 307 308 308 308 309 308 307 306 307 307 307 307 307 306
305 305 307 310 314 314 314 315 317 316 315 319 318 317 311 310 306 303 297 300 301 301 304 304 302 302 304 305 303 305 305 305 306 306 306 307 307 306 306 306 306 307 307 307 306 304 304
306 306 306 305 306 308 312 314 314 316 316 315 317 314 310 308 303 297 296 300 301 299 304 311 301 302 302 304 303 303 303 304 304 303 305 306 306 305 305 305 305 306 305 303 303 304 305
304 305 305 306 304 305 306 309 314 315 316 315 316 311 312 309 303 300 300 300 300 302 320 306 304 303 303 303 303 302 301 303 305 305 305 305 304 304 305 305 304 304 303 304 304 304 305
303 303 304 304 304 304 304 305 311 315 316 315 313 309 307 303 299 300 300 300 302 308 316 305 304 304 304 302 302 302 302 303 303 304 304 305 303 303 304 303 303 303 303 304 305 305 306
301 302 302 303 303 304 303 304 308 313 316 315 312 308 306 303 302 300 300 302 306 312 304 304 304 303 305 303 301 302 303 303 304 304 305 304 304 303 303 302 304 304 304 305 306 309 307
300 300 301 302 303 302 303 304 306 311 315 314 307 304 301 302 300 299 301 305 311 309 305 301 302 303 305 302 301 301 301 303 303 302 304 305 304 303 303 303 304 305 304 305 302 304 305
299 300 301 301 303 302 303 305 306 311 311 305 301 298 298 300 300 300 303 306 313 309 305 302 302 304 303 301 301 301 301 302 302 302 302 303 301 302 303 302 302 303 303 303 303 304 305
299 300 300 301 302 303 303 305 307 310 306 303 300 298 299 300 300 302 303 308 307 301 301 302 303 304 304 302 301 301 302 300 301 301 300 301 301 300 302 302 302 301 303 306 305 308 308
298 299 300 301 302 302 303 305 307 308 304 302 299 300 297 300 300 303 305 306 303 300 300 301 302 302 302 301 301 301 300 300 300 301 301 302 301 300 301 301 302 303 303 304 306 307 310
298 299 299 300 301 302 302 304 307 305 303 303 300 301 296 300 303 303 306 304 302 300 300 300 301 301 302 301 301 301 301 300 300 302 300 301 303 303 303 303 303 302 303 305 308 310 308
298 299 299 300 301 302 304 305 307 303 304 300 300 299 297 299 305 305 303 302 301 300 300 301 301 301 301 301 302 301 301 301 301 301 301 304 304 304 305 308 307 309 305 304 307 309 310
299 299 300 300 301 302 304 305 306 303 305 301 301 302 299 299 304 305 304 303 301 300 301 301 301 300 301 302 301 300 300 301 302 302 302 304 303 303 305 302 302 304 306 307 308 310 310
299 299 301 301 301 303 304 305 304 303 304 300 303 303 302 304 303 304 303 303 301 301 300 300 300 301 301 301 301 300 300 301 300 301 302 303 303 304 304 303 303 305 306 306 306 305 308
301 300 300 301 303 304 304 306 303 304 303 301 303 303 302 304 303 303 303 302 301 301 300 300 301 301 301 300 300 301 301 302 304 302 302 302 303 305 305 306 306 307 303 305 303 301 302
299 299 300 301 303 304 305 306 302 302 302 301 300 302 304 302 303 304 304 301 302 303 301 301 301 301 301 301 301 301 302 303 303 304 305 307 305 307 310 305 306 307 303 302 301 300 303
301 300 301 302 303 304 306 302 302 301 301 299 301 303 305 303 303 302 300 301 301 302 307 301 302 302 302 302 302 303 303 303 303 302 303 306 306 307 308 308 312 303 300 300 299 298 299
307 303 304 303 305 305 302 301 300 299 300 298 298 302 302 303 301 301 300 301 301 302 302 303 302 302 302 303 304 306 306 304 304 303 304 304 306 309 310 309 305 303 301 301 303 299 296
308 307 306 305 302 301 300 299 298 299 298 298 297 299 302 303 302 301 302 302 302 302 302 302 301 301 302 304 305 309 309 309 310 308 305 306 305 308 308 309 310 304 298 297 299 304 295
301 302 301 301 300 299 298 298 298 298 298 298 296 298 302 303 300 302 302 302 301 301 301 301 301 302 301 306 308 308 308 307 308 308 308 309 309 308 309 312 305 297 296 297 306 303 294
297 298 298 298 298 298 298 298 298 298 298 298 296 297 302 302 300 300 300 300 300 301 302 301 302 301 302 305 307 307 306 306 306 304 305 307 308 309 308 310 308 294 297 302 296 293 292
297 298 298 298 298 298 299 298 298 297 297 298 298 297 300 301 298 296 296 296 297 298 301 301 302 303 304 306 305 304 304 304 305 307 301 306 302 305 301 301 293 293 295 294 293 292 291

GFSGBSN_925_thetae_117.txt.gz
Theta_e
321 324 327 327 326 326 326 325 324 324 322 321 321 320 317 315 312 310 308 307 303 300 300 295 294 295 307 311 312 308 304 307 311 311 309 310 310 311 311 312 312 311 312 312 312 312 312
316 319 321 324 326 326 325 326 326 325 324 323 322 321 319 316 314 311 309 308 304 301 300 295 294 296 308 314 306 304 307 310 310 309 308 308 309 310 310 310 311 312 311 312 312 311 311
311 311 317 318 320 321 324 326 326 326 325 324 323 322 320 318 315 313 310 308 304 301 300 295 296 303 308 313 307 306 306 305 308 308 309 310 310 312 311 310 311 310 309 310 310 310 310
312 311 310 311 316 318 318 321 324 325 325 325 324 322 321 319 316 314 310 309 305 301 297 298 300 305 311 308 305 305 305 306 306 307 308 309 309 310 310 310 310 310 311 312 313 311 310
309 310 311 311 312 312 317 317 317 319 322 324 324 322 321 319 316 313 310 308 304 298 300 301 307 309 314 305 306 308 307 306 307 308 308 308 308 309 310 311 312 312 313 314 313 311 310
307 308 310 312 314 313 312 317 318 317 320 321 321 322 321 319 316 314 311 307 302 300 308 308 309 310 311 308 309 307 309 306 308 309 309 309 309 310 311 311 312 314 314 313 312 312 311
307 307 308 312 315 314 313 313 317 317 316 317 320 322 320 318 316 312 310 303 307 312 310 316 316 314 310 310 308 307 311 310 308 308 309 310 310 311 312 312 312 312 312 311 310 310 310
308 306 305 309 314 315 314 313 313 316 317 316 320 320 319 317 314 311 307 301 307 306 316 313 311 311 309 308 308 309 307 308 309 310 310 311 312 312 311 311 311 311 309 309 310 310 310
306 308 307 305 307 309 314 314 314 316 318 316 318 318 318 315 311 306 303 301 303 303 313 316 314 312 311 307 308 308 308 308 309 309 310 311 312 310 308 309 310 309 308 309 309 309 308
304 304 306 306 306 306 306 308 311 314 315 316 317 318 315 311 306 303 300 302 302 304 316 317 309 306 305 306 307 307 307 309 308 308 308 308 309 308 309 308 308 308 308 308 307 307 308
302 303 303 304 305 305 305 305 306 309 314 316 316 315 315 315 307 301 306 303 303 307 320 312 306 304 306 305 305 305 304 305 305 307 307 308 307 307 307 307 308 308 307 306 307 307 307
302 301 302 303 303 305 304 304 304 305 311 315 316 315 314 307 303 303 302 302 303 313 320 311 307 307 306 306 306 305 304 305 307 306 307 308 307 306 307 307 306 306 306 306 306 306 308
299 300 301 302 302 302 304 303 304 304 309 314 315 315 311 306 303 301 302 304 313 319 311 311 308 307 308 306 306 305 306 306 307 307 308 308 308 307 305 306 307 306 307 309 310 310 310
299 299 300 301 301 301 302 302 302 303 307 314 315 314 308 306 304 303 302 308 317 313 314 306 307 307 308 308 306 306 306 307 307 306 307 308 309 308 306 306 306 306 307 309 309 309 309
298 298 299 299 300 301 300 302 301 303 306 311 306 301 301 302 302 301 306 314 316 315 313 307 306 308 309 307 306 306 307 307 308 307 307 306 306 305 305 305 305 304 305 305 306 306 307
297 297 299 300 300 300 301 299 302 303 307 305 302 300 300 300 300 302 308 315 315 312 309 307 308 309 310 308 306 306 307 306 305 304 304 304 304 304 303 304 304 304 304 305 305 307 308
296 297 297 298 300 300 300 300 302 303 307 304 303 302 299 300 301 303 313 315 313 308 306 307 309 309 309 309 307 307 305 303 303 303 303 303 304 304 302 303 303 304 304 303 305 309 312
295 295 296 297 298 299 300 300 302 304 305 303 302 303 299 300 303 304 312 312 309 308 304 305 305 307 306 307 305 305 305 303 303 303 303 303 304 305 303 303 304 304 305 305 308 307 310
296 296 297 297 298 299 300 300 302 304 304 302 299 298 298 300 308 310 310 311 308 306 304 304 304 305 305 305 304 304 304 304 302 303 302 303 303 304 304 305 307 309 307 305 307 310 311
296 297 297 297 298 298 299 299 301 304 304 302 300 301 298 298 302 311 311 310 308 305 305 304 304 304 304 303 304 305 304 303 303 302 302 303 304 306 307 307 306 308 307 307 308 309 309
296 297 297 298 298 298 299 299 301 304 304 304 302 304 303 303 302 308 309 309 308 305 304 304 304 304 303 304 305 305 303 303 303 303 302 302 304 306 304 304 304 305 307 308 310 309 311
298 297 298 298 298 299 299 300 301 303 305 306 303 308 305 309 304 307 309 309 309 305 304 304 303 302 303 304 305 303 303 304 304 302 302 304 304 306 305 306 307 310 309 308 308 307 304
298 298 298 298 299 299 300 300 302 303 304 305 303 307 307 308 306 308 311 309 308 306 303 302 302 304 305 304 303 302 303 303 304 305 303 305 307 307 310 307 307 310 308 306 306 303 305
298 299 299 299 299 299 300 301 302 304 304 302 305 305 309 309 309 308 308 308 306 305 308 302 304 305 304 304 303 303 304 305 305 305 305 309 308 309 310 308 312 305 303 303 304 303 302
298 299 300 300 298 300 301 302 302 304 305 304 304 305 310 309 308 307 307 306 304 303 303 306 303 304 304 304 305 306 306 306 306 305 304 307 308 311 311 311 308 304 302 303 303 302 302
299 299 301 300 301 301 301 302 303 304 304 303 303 304 308 310 308 307 306 304 303 306 305 304 304 304 304 305 306 308 310 308 310 307 305 306 306 308 311 310 312 307 303 302 302 306 299
308 302 301 300 300 301 301 303 304 304 303 301 301 304 305 308 304 304 305 305 305 304 304 305 304 305 304 306 307 310 310 308 311 310 310 309 309 309 309 312 308 302 300 300 308 305 299
303 300 301 300 300 301 302 304 302 301 300 300 300 303 305 307 304 303 304 305 304 304 304 304 304 304 305 306 308 309 309 309 310 308 308 310 311 312 309 313 313 298 300 304 300 298 298
302 302 302 302 302 300 299 299 299 299 299 301 301 301 302 304 304 301 300 301 302 303 304 304 305 305 306 307 308 308 307 307 309 309 305 308 307 309 305 304 296 297 299 298 297 297 296

GFSGBSN_925_thetae_120.txt.gz
Theta_e
317 320 321 323 326 327 327 325 325 324 324 322 321 321 320 317 317 315 314 310 309 306 304 303 300 296 307 315 317 308 303 305 308 311 310 310 311 311 312 313 314 313 313 313 313 313 312
309 311 313 316 318 322 324 326 326 326 326 325 323 322 320 319 317 316 315 311 310 307 305 303 299 296 308 315 310 308 309 311 311 311 310 309 309 310 310 311 311 312 312 313 312 312 311
308 313 310 308 312 317 320 323 324 323 325 325 325 323 320 320 318 316 315 313 311 308 305 302 297 303 308 314 314 310 308 306 308 309 309 310 310 311 312 312 312 311 311 311 311 311 311
308 312 312 311 310 312 317 319 320 323 323 324 324 323 321 320 319 317 315 314 311 308 304 299 300 306 311 314 309 307 307 307 307 307 308 309 310 310 310 310 310 310 311 312 313 315 312
311 310 309 310 311 311 311 312 317 318 317 320 320 322 323 322 320 317 315 313 311 307 301 302 307 310 317 308 308 308 306 307 307 308 308 308 309 309 309 310 311 314 314 314 315 314 312
309 309 308 309 310 312 314 313 311 317 317 317 318 321 322 321 319 317 313 312 310 305 306 310 310 312 314 311 309 310 309 309 307 309 310 310 309 308 309 310 311 314 315 315 315 314 313
308 308 307 306 307 313 315 314 313 314 318 317 316 319 320 321 319 315 312 311 306 311 311 317 319 317 317 316 310 310 310 310 307 308 309 310 310 310 311 313 314 314 314 313 314 314 312
306 307 309 307 305 310 314 315 314 313 313 316 317 316 319 320 316 314 311 307 310 306 314 316 315 316 315 314 313 313 310 311 311 309 309 310 312 311 313 314 313 312 312 313 312 311 311
303 304 306 308 308 306 307 311 314 314 314 315 317 317 319 318 315 309 309 308 307 307 312 317 316 316 316 314 314 313 312 310 310 312 312 313 314 314 313 311 310 311 312 312 310 310 310
303 302 303 305 306 307 306 306 308 310 314 315 317 317 317 315 309 308 306 310 308 306 318 312 314 314 315 311 310 310 311 311 310 310 310 311 311 311 311 311 310 310 310 310 309 309 309
303 303 302 303 303 305 306 305 305 306 308 314 316 317 316 316 309 307 310 307 306 310 315 312 310 307 308 309 308 308 310 309 309 311 310 310 309 309 309 308 309 309 309 309 308 308 308
301 301 302 301 301 302 304 306 304 305 305 310 315 316 316 310 307 309 306 305 307 317 318 313 309 307 308 308 308 306 306 306 307 307 307 308 309 309 308 308 308 308 307 307 307 308 309
300 300 300 300 301 301 302 303 305 303 304 306 314 315 315 311 307 304 304 305 317 320 312 313 311 310 309 309 308 307 307 306 307 308 309 309 309 309 309 307 307 307 307 309 310 312 313
299 299 299 299 299 301 301 301 302 303 303 305 312 314 312 310 307 304 304 311 319 312 313 310 310 310 310 310 309 308 307 308 308 308 309 309 310 310 309 308 307 307 307 309 309 312 311
297 298 299 300 299 300 300 301 300 302 302 305 311 306 306 308 306 303 309 316 316 312 313 313 310 310 309 310 309 309 308 308 309 309 308 309 309 307 306 306 306 306 307 306 308 307 308
297 298 298 299 298 299 299 299 300 301 303 306 305 303 302 304 304 305 311 314 314 313 315 314 312 310 311 311 309 308 309 309 309 308 307 307 307 306 307 306 305 305 305 307 306 307 308
297 297 297 298 298 298 299 300 298 300 303 306 304 304 301 302 303 306 312 313 314 314 315 311 313 311 311 310 311 310 309 306 306 306 305 304 304 305 306 306 305 305 306 305 305 305 308
296 296 296 296 297 298 299 299 299 299 304 304 303 305 300 301 303 303 311 313 312 315 314 310 309 309 310 310 310 311 309 308 305 305 304 305 305 306 306 306 305 304 304 305 309 307 306
296 295 296 296 296 297 298 297 300 299 304 304 301 299 300 301 307 307 309 313 314 313 312 307 308 308 309 309 309 309 307 305 304 304 305 304 304 305 303 305 304 303 305 306 307 309 309
296 296 296 296 296 296 297 298 298 299 304 302 300 301 298 299 302 308 312 314 313 312 311 308 306 307 308 307 307 306 306 306 304 303 303 305 304 306 305 307 306 309 311 309 309 310 309
296 297 296 296 297 297 297 298 297 300 304 303 303 304 302 302 303 305 311 311 313 314 308 307 306 307 306 307 307 306 305 306 304 304 303 303 303 305 304 303 302 305 306 306 310 309 311
297 297 297 297 297 297 297 298 297 300 302 304 302 307 304 308 304 305 306 315 313 311 308 307 306 306 306 306 305 306 306 306 305 304 303 303 303 306 305 304 305 306 307 306 309 310 310
296 297 297 297 297 297 297 297 297 300 302 304 305 306 308 307 307 306 308 311 312 312 309 306 306 306 306 305 304 306 304 304 304 304 304 305 308 305 306 308 309 310 311 311 311 308 307
296 296 297 297 297 297 297 298 297 300 300 304 306 308 308 311 308 308 308 310 311 311 311 306 306 305 305 305 304 304 304 304 304 305 305 309 307 305 309 310 311 307 305 305 306 305 305
299 296 297 298 298 298 298 298 297 300 300 303 305 307 309 311 310 308 308 310 310 309 306 306 304 305 306 305 305 304 305 305 306 306 306 308 308 309 311 310 310 305 303 305 304 305 303
300 298 298 298 298 298 298 298 297 300 300 302 305 307 310 311 311 308 309 311 311 308 305 305 306 306 307 305 306 307 307 307 308 307 305 307 307 309 309 313 313 308 304 304 304 306 302
299 300 299 299 298 298 299 299 298 300 300 301 304 305 308 312 309 310 311 312 309 306 305 306 306 306 305 307 308 306 308 308 311 309 309 307 308 309 308 309 309 304 303 303 307 307 302
298 300 300 299 299 299 299 299 299 301 300 301 302 304 306 310 308 309 309 308 306 306 307 307 305 305 306 307 307 306 311 312 311 310 308 308 308 309 308 310 312 301 301 304 302 302 301
300 299 300 300 300 300 299 300 300 300 301 302 303 305 305 306 306 304 304 304 305 305 307 306 306 306 307 306 307 311 312 310 310 310 308 310 309 309 304 305 299 299 301 300 300 300 297

GFSGBSN_925_thetae_123.txt.gz
Theta_e
320 319 320 321 322 322 324 326 327 325 324 324 323 322 321 320 319 318 317 315 314 316 311 307 305 301 308 311 314 310 306 305 305 307 312 309 308 308 308 309 307 309 310 309 309 308 309
312 311 313 314 317 319 320 321 323 324 325 325 325 324 323 322 320 319 317 316 315 315 312 307 303 300 306 313 311 308 307 310 311 311 311 309 308 308 307 309 309 309 309 308 309 308 308
310 310 310 311 310 308 310 314 319 322 323 323 324 325 324 323 322 321 318 315 316 316 313 307 300 303 306 310 314 312 308 308 306 306 308 309 309 310 309 309 310 309 308 308 308 309 308
311 310 310 313 312 310 308 308 313 315 321 321 323 324 324 323 321 320 320 315 316 317 314 305 301 305 307 314 314 312 309 309 308 307 306 307 308 308 309 308 308 307 308 308 309 310 311
310 311 310 310 310 311 311 310 311 313 317 318 321 322 323 322 322 321 318 316 316 316 314 303 307 308 314 311 309 309 306 307 307 307 308 308 308 308 308 307 307 308 310 311 312 312 310
308 310 309 309 308 308 310 311 313 312 312 317 317 317 318 320 321 319 317 316 315 313 310 306 309 311 312 314 310 310 309 308 308 307 308 308 307 306 305 305 306 309 310 311 311 312 310
307 308 308 308 306 305 309 313 314 314 312 313 318 317 316 320 320 317 316 313 306 308 306 313 314 313 316 316 311 310 310 309 309 305 307 308 307 306 306 306 308 309 311 310 309 311 310
305 305 305 308 309 306 308 313 315 314 313 313 316 317 317 319 319 316 314 310 310 307 310 313 313 314 315 316 316 313 312 310 310 306 305 307 308 308 309 310 311 312 310 309 310 311 310
304 303 304 304 306 308 306 307 309 313 314 313 313 317 315 316 317 312 312 314 308 307 308 313 315 316 317 316 316 314 311 310 309 309 309 308 309 311 311 311 311 310 309 309 309 308 306
303 303 303 303 304 306 307 306 306 307 310 315 315 317 315 315 312 311 308 316 310 306 312 314 314 315 316 314 313 311 313 311 309 309 309 309 310 311 310 309 309 308 308 309 309 307 306
301 302 302 302 302 304 304 305 305 305 306 309 315 317 315 316 310 308 314 315 307 309 314 311 308 308 311 312 307 308 310 310 310 309 309 309 309 308 308 308 308 308 308 307 307 304 304
301 301 301 301 302 302 302 303 304 305 305 305 312 315 316 312 310 312 313 307 306 315 317 312 307 307 308 309 308 306 308 305 305 306 308 307 305 305 306 308 307 307 306 306 305 304 305
300 300 300 300 300 301 302 301 303 305 304 304 309 314 314 312 309 311 307 308 315 318 312 311 309 308 308 308 308 306 305 304 303 305 306 306 307 306 307 307 307 306 305 306 308 308 308
299 300 299 299 300 300 300 301 301 302 303 303 306 312 311 312 311 306 306 312 318 313 312 313 311 309 309 309 307 307 306 305 304 305 306 307 307 308 308 307 306 306 306 308 310 308 306
299 299 298 298 298 299 299 299 301 301 302 303 306 309 308 309 305 306 309 314 313 311 312 312 311 310 309 310 310 308 306 306 306 306 306 307 308 306 306 306 305 306 304 305 306 304 306
300 299 299 298 298 298 299 299 298 299 300 303 306 305 304 309 304 305 312 314 313 312 312 313 316 311 310 309 309 307 308 308 308 308 306 307 306 307 306 306 305 304 304 304 305 307 307
299 299 298 298 298 298 299 298 297 298 299 303 305 306 303 307 304 305 310 313 312 312 312 314 315 313 310 310 309 308 309 306 306 305 304 304 304 304 305 305 305 305 304 305 304 304 305
298 298 298 297 297 297 298 298 298 297 298 303 304 306 302 304 303 302 308 310 311 312 312 314 314 309 311 311 310 310 310 310 305 304 303 304 304 304 305 304 304 303 304 305 303 305 305
296 296 296 296 296 296 296 297 298 299 298 304 304 300 301 302 307 305 306 310 311 312 313 315 315 309 307 308 309 309 308 306 304 304 304 304 303 303 304 304 306 308 309 309 309 306 307
296 296 296 296 296 296 296 296 295 298 299 303 299 300 299 300 301 306 307 309 312 311 313 314 311 307 307 308 308 306 307 305 304 303 305 304 304 303 303 304 304 303 304 307 310 311 306
295 295 295 296 296 296 296 296 296 298 297 302 301 301 300 300 302 305 308 310 311 314 311 312 313 306 306 307 306 306 306 305 304 305 302 301 303 300 302 304 303 303 302 303 304 306 306
294 294 295 295 295 296 296 296 297 295 297 302 302 303 299 301 302 305 307 311 312 313 313 310 309 306 305 305 305 305 305 304 303 304 303 302 301 298 296 303 304 304 303 304 302 304 303
294 295 295 295 295 296 297 296 296 294 297 300 302 303 301 303 303 305 306 307 311 311 311 308 307 305 306 306 305 303 302 303 304 303 303 301 299 297 301 305 309 305 302 303 304 306 307
294 295 295 296 295 295 297 296 297 295 298 299 302 302 304 304 303 304 305 306 309 312 307 310 306 305 305 302 302 302 303 303 304 304 303 301 300 302 303 304 309 301 304 305 306 306 301
295 295 296 296 296 296 296 297 297 297 298 299 302 303 303 305 305 305 305 305 307 308 310 307 305 304 302 303 304 304 304 304 305 304 305 303 301 301 304 307 306 305 303 305 304 305 302
295 296 296 296 296 296 297 297 297 298 298 299 298 303 304 304 305 306 305 306 306 309 307 306 305 303 303 303 304 305 307 307 306 306 306 304 303 302 307 310 312 306 304 303 304 304 303
298 296 296 296 296 297 297 297 297 298 297 299 299 299 304 306 306 307 306 306 307 305 304 304 305 305 304 304 306 307 307 307 309 308 308 308 306 306 305 307 307 304 303 304 305 302 300
298 298 298 298 297 297 297 297 297 298 297 299 299 301 304 303 304 305 307 306 307 304 303 303 303 303 304 305 306 306 306 305 310 309 307 307 305 305 306 309 309 301 301 304 300 299 299
299 299 299 298 298 297 298 298 298 298 298 299 299 300 303 302 303 304 303 304 307 303 303 304 305 304 304 305 305 304 307 306 309 313 307 307 305 304 304 301 298 299 299 300 298 296 294

GFSGBSN_925_thetae_126.txt.gz
Theta_e
320 320 321 321 322 323 323 323 324 325 326 325 324 323 322 322 321 321 320 320 319 319 317 317 315 315 311 310 314 311 308 309 308 307 311 310 307 306 307 306 306 307 308 308 307 307 306
309 311 314 319 320 320 320 321 321 322 323 324 325 324 323 323 322 321 321 322 322 321 318 315 311 305 306 315 312 309 307 308 308 310 310 309 307 306 306 308 309 308 307 306 307 307 307
309 309 310 309 310 312 310 310 313 318 320 322 323 324 324 324 324 323 322 321 319 320 318 312 305 302 305 314 315 311 310 308 308 307 305 306 307 308 308 308 308 307 307 307 308 308 307
308 310 311 310 312 312 310 309 308 309 313 318 322 321 323 324 323 323 322 320 319 318 317 313 305 304 308 316 315 314 314 310 308 308 307 307 307 307 308 307 307 307 307 308 309 309 309
307 309 311 310 312 311 311 311 310 309 310 312 313 316 322 322 323 322 322 319 318 317 316 312 307 308 313 314 310 310 310 307 308 307 306 307 307 307 306 306 304 306 307 309 311 311 310
306 307 309 310 309 309 308 309 311 311 310 309 313 314 319 320 321 321 319 317 316 315 311 306 308 310 311 316 312 308 309 308 305 306 306 307 304 305 303 303 306 306 308 308 309 309 309
305 306 307 308 309 307 305 306 310 313 314 313 311 317 317 318 318 320 317 315 309 309 304 314 314 314 314 314 310 309 310 307 308 306 306 307 305 305 305 304 305 306 306 307 307 308 309
304 305 305 305 306 308 305 308 312 314 314 313 313 317 317 316 318 319 315 311 312 307 312 310 311 312 314 315 316 314 311 308 308 306 304 304 306 307 307 307 307 308 308 309 307 309 308
305 304 304 304 304 306 308 306 308 311 313 313 313 316 316 315 317 315 314 315 307 307 310 311 312 314 315 314 316 316 312 309 309 309 308 304 306 308 308 308 309 309 308 308 308 307 306
304 304 303 303 303 304 306 306 306 307 308 312 314 314 316 315 314 313 311 317 309 307 309 311 314 314 315 315 317 315 314 310 307 309 307 307 308 309 309 310 308 307 307 307 306 304 304
303 302 302 302 302 302 304 304 305 305 306 307 314 315 316 314 312 310 313 315 310 308 304 307 311 311 313 315 309 307 311 309 312 308 308 308 308 307 307 307 307 307 306 306 305 304 304
302 302 301 301 302 302 302 303 303 305 305 305 309 313 315 313 311 314 314 313 307 311 312 312 306 307 310 309 307 305 307 305 305 307 306 307 306 305 305 306 306 306 305 304 303 303 305
301 301 300 301 301 301 302 302 301 303 306 304 305 313 313 312 311 313 312 307 315 315 311 311 307 307 308 308 308 304 304 304 303 304 304 305 305 304 305 304 305 305 303 305 306 307 307
301 301 299 300 300 300 300 301 302 301 303 304 305 310 311 312 313 312 307 312 316 313 313 311 308 307 307 307 307 306 303 303 302 303 303 305 306 306 306 305 305 304 304 306 310 310 306
301 301 300 299 299 299 300 300 300 302 301 303 305 307 308 310 309 307 308 313 311 311 311 311 310 308 308 308 307 306 304 303 304 302 304 306 306 305 304 305 305 305 304 304 305 304 305
302 301 300 299 299 298 298 299 299 300 301 302 305 307 307 310 308 306 311 313 313 311 311 312 314 311 309 308 308 306 305 306 305 305 304 306 306 305 305 304 304 304 303 304 305 308 307
300 301 300 299 299 297 297 297 299 299 299 301 304 306 304 308 305 306 311 312 312 310 311 313 314 315 311 308 307 306 308 307 306 304 303 303 303 304 303 303 303 303 302 303 304 305 305
298 299 300 299 299 298 297 297 298 298 298 300 303 304 303 304 305 301 307 309 311 312 311 311 313 313 309 310 309 308 308 308 304 302 302 303 302 303 303 303 303 303 303 304 304 305 303
298 299 300 299 298 298 297 297 297 296 296 300 303 301 302 303 308 305 305 308 309 312 311 312 315 313 309 307 308 309 306 304 303 302 303 302 302 302 303 302 305 306 307 308 307 303 304
296 297 298 298 297 297 297 296 295 295 296 300 299 302 300 301 301 305 305 308 309 309 310 311 313 312 309 306 308 307 304 305 303 303 306 303 302 302 304 303 303 302 303 302 307 304 306
296 297 297 297 296 296 296 295 294 294 297 300 300 301 300 303 302 305 304 306 308 310 310 311 313 312 308 307 308 306 305 303 303 304 301 300 302 298 301 303 303 302 302 302 301 303 307
296 296 296 296 295 296 296 296 296 293 295 300 299 300 298 298 302 304 306 307 307 308 309 311 312 313 310 307 306 306 303 302 302 302 302 300 300 294 293 302 303 302 302 301 302 302 300
295 295 295 295 295 295 295 296 296 296 296 298 299 301 299 300 302 304 305 304 307 308 309 308 309 309 306 304 303 302 303 302 303 302 301 299 297 294 298 303 305 306 303 301 299 301 302
294 295 295 294 294 294 296 296 295 295 296 297 298 301 301 301 302 303 303 305 306 307 306 309 309 307 305 300 301 301 301 302 302 302 301 299 299 299 303 301 306 301 303 303 304 304 301
294 294 294 294 294 295 295 295 295 296 296 296 298 300 301 300 302 303 303 303 304 305 307 305 306 305 301 302 303 303 301 302 303 303 302 301 300 300 301 305 304 305 303 304 303 303 300
294 294 294 294 294 294 295 296 295 296 296 297 296 300 302 302 302 303 303 303 303 304 306 306 305 303 302 302 302 304 305 303 305 304 303 302 301 300 304 307 308 304 305 303 303 300 299
294 294 294 294 294 295 295 296 296 296 296 297 297 296 299 302 301 303 303 303 302 302 304 304 305 304 302 302 305 305 305 306 307 307 308 305 304 304 304 306 305 304 302 302 301 300 299
295 295 295 295 294 295 296 296 296 296 296 297 296 297 297 302 301 304 305 303 304 302 302 301 303 303 301 304 304 304 305 307 308 308 308 307 306 306 306 306 305 300 301 303 299 297 297
297 296 296 295 295 295 296 296 297 296 296 298 296 298 298 299 301 302 303 303 303 303 300 300 301 300 299 302 303 305 305 305 306 309 307 307 304 302 302 302 297 298 299 298 297 296 295

GFSGBSN_925_thetae_129.txt.gz
Theta_e
319 321 323 323 324 324 325 325 324 324 324 325 325 324 323 322 322 322 321 321 320 318 318 319 320 318 315 313 315 312 308 309 309 310 310 308 306 305 305 304 305 306 307 306 305 305 305
312 314 316 316 318 320 320 321 322 323 324 324 324 325 324 323 323 322 322 321 320 319 317 317 318 316 309 319 316 309 309 308 308 309 307 306 307 306 306 307 307 307 306 305 305 306 305
310 310 312 313 311 309 313 316 318 319 320 321 322 323 324 323 324 324 323 322 320 319 317 316 314 309 306 317 316 311 311 310 308 307 305 306 305 306 307 307 307 307 306 305 306 307 307
309 309 310 311 310 309 310 312 311 313 309 312 318 322 322 322 323 324 323 322 319 318 317 315 314 308 310 320 315 315 313 313 311 308 307 307 306 306 307 306 305 306 306 306 307 308 308
307 307 309 312 311 312 313 312 310 310 308 308 312 317 321 322 322 323 322 320 319 318 317 316 309 308 314 316 314 313 313 312 307 306 306 306 307 305 305 304 303 303 305 307 308 308 309
306 306 307 309 310 310 310 310 310 311 311 310 311 311 315 316 321 322 321 319 317 316 311 308 307 312 312 318 314 308 309 309 306 305 305 306 302 303 301 302 306 306 306 306 307 307 307
305 305 305 307 308 309 308 307 306 308 311 313 312 311 314 314 317 320 319 317 314 311 306 316 314 315 314 314 309 308 308 306 306 305 304 305 304 305 303 303 304 305 305 304 303 305 307
304 304 305 306 306 307 307 306 307 311 312 313 313 312 314 315 317 318 318 313 313 308 313 309 311 311 313 314 315 313 309 306 306 306 303 302 304 305 305 305 306 306 306 306 306 306 306
305 304 304 305 304 305 306 307 306 308 311 313 313 312 313 315 315 316 315 316 308 307 312 312 311 313 314 313 316 316 308 307 307 307 305 303 304 305 306 306 307 307 307 307 306 305 304
303 304 304 304 303 303 304 306 305 306 308 311 313 312 314 315 313 313 314 316 308 308 311 311 311 312 314 314 316 315 314 310 307 309 308 307 307 307 307 307 307 308 306 306 305 304 304
302 304 304 304 303 302 302 304 305 305 306 308 312 313 314 314 313 312 313 315 311 307 309 306 312 311 314 314 309 310 312 310 309 307 307 308 307 307 307 307 306 305 305 305 304 303 303
301 302 303 303 302 302 302 302 304 304 305 306 308 313 314 314 311 312 312 315 308 311 310 308 307 311 317 315 305 305 306 307 309 309 308 306 306 305 305 305 305 305 304 303 301 302 304
303 302 302 302 301 301 302 302 302 303 305 305 306 312 312 313 312 312 313 309 314 313 309 311 307 308 312 308 306 304 305 303 303 306 305 304 304 304 304 304 304 303 303 305 305 306 306
303 302 301 301 301 301 301 302 302 302 303 305 305 311 311 312 311 312 309 312 317 312 311 311 307 306 310 307 307 304 303 305 302 303 302 304 306 305 304 304 304 302 303 305 308 309 307
302 302 302 301 301 300 300 301 301 302 302 304 304 308 309 312 311 308 309 315 312 311 311 310 307 307 306 307 307 305 302 302 302 301 304 304 305 305 304 304 304 304 304 303 304 304 304
302 301 301 302 301 300 299 300 300 300 302 303 305 306 307 310 308 307 312 312 312 310 310 310 311 308 307 307 307 305 304 304 304 302 303 305 306 305 304 304 302 304 303 304 305 308 309
299 300 300 301 301 300 299 299 299 300 301 302 304 305 304 308 306 307 311 312 311 310 310 312 312 314 311 308 307 305 306 306 305 304 302 302 304 304 303 303 303 302 302 303 304 304 306
298 299 298 299 301 300 299 298 298 299 300 301 303 304 303 306 306 303 308 309 310 311 310 311 311 313 312 308 309 306 307 307 304 302 303 301 302 302 303 303 302 302 303 303 304 304 303
298 297 297 298 301 300 299 297 297 298 299 299 303 301 302 304 308 306 305 308 309 310 310 310 312 311 311 309 308 308 306 303 303 301 302 302 301 302 304 302 303 303 305 304 305 303 305
296 297 295 296 298 300 299 297 296 298 298 299 300 302 301 302 299 304 305 307 309 308 309 310 313 312 311 306 306 306 303 304 302 304 306 302 301 303 307 304 302 303 304 305 302 302 305
296 296 296 296 296 301 299 298 297 297 298 298 300 301 299 302 304 305 303 305 307 308 308 309 310 311 309 309 307 306 304 302 302 303 300 300 302 298 301 302 302 302 302 302 301 302 302
295 296 296 296 296 296 298 298 297 297 297 298 299 300 297 297 301 303 306 305 305 307 308 309 310 311 309 307 305 306 304 303 303 302 301 298 301 293 292 300 301 301 301 301 299 300 300
295 296 295 295 296 296 297 297 297 296 296 297 299 299 297 299 299 304 303 304 305 305 306 306 307 308 310 310 308 304 307 307 305 302 301 298 295 294 298 302 302 302 303 302 300 301 301
295 295 295 295 297 296 296 296 296 296 295 296 298 300 301 300 301 302 303 302 302 304 303 307 306 306 306 301 301 302 302 302 301 301 299 296 295 298 299 300 300 299 301 302 302 302 300
294 295 296 296 296 296 296 295 296 295 295 295 297 300 301 300 301 301 302 302 303 303 305 304 305 306 301 304 307 304 302 302 302 302 300 298 299 300 303 302 301 303 304 304 304 303 300
294 294 295 296 295 295 295 295 296 294 294 297 295 298 299 302 301 301 301 302 302 302 303 304 304 301 302 302 302 305 305 303 304 303 301 300 299 301 303 303 305 303 305 302 301 299 298
293 294 294 295 295 295 295 295 295 296 294 297 296 296 299 300 299 302 301 302 300 300 301 303 304 304 301 302 306 305 305 303 305 304 305 302 300 302 304 305 304 302 302 301 299 300 297
293 293 294 294 294 295 295 295 295 295 294 296 296 296 297 298 300 303 302 301 301 301 300 300 304 304 302 305 305 303 301 304 304 305 305 304 304 304 305 306 305 301 301 302 298 297 295
294 293 293 294 294 294 294 294 295 295 294 296 296 296 296 297 298 299 302 303 302 302 299 299 302 300 299 304 302 303 305 301 302 303 306 308 305 304 304 304 298 298 298 298 296 296 293